Wetterdaten: Samstag, 23.07.2022
Datum Zeit Temp. Aussen Temp. o. S. Temp +5cm Feuchte Auss Luftdruck Regen Sonnenschein Regendauer Solar Windben Empfang
23.07.2022 00:00 19,7 C 18,9 C 15,0 C 78 % 1018,6 hPa 0,0 l/m 0 min 0 min 0 W/m 3,2 km/h (1 Bft) 97,87 %
23.07.2022 00:02 19,7 C 18,3 C 15,0 C 78 % 1018,6 hPa 0,0 l/m 0 min 2 min 0 W/m 0,0 km/h (0 Bft) 97,67 %
23.07.2022 00:04 19,6 C 18,3 C 15,0 C 78 % 1018,7 hPa 0,0 l/m 0 min 2 min 0 W/m 0,0 km/h (0 Bft) 97,83 %
23.07.2022 00:08 19,6 C 18,3 C 14,4 C 79 % 1019,0 hPa 0,0 l/m 0 min 4 min 0 W/m 6,4 km/h (2 Bft) 95,83 %
23.07.2022 00:10 19,6 C 17,8 C 14,4 C 79 % 1019,0 hPa 0,0 l/m 0 min 2 min 0 W/m 6,4 km/h (2 Bft) 95,74 %
23.07.2022 00:12 19,6 C 17,8 C 13,9 C 80 % 1019,1 hPa 0,0 l/m 0 min 2 min 0 W/m 6,4 km/h (2 Bft) 95,74 %
23.07.2022 00:14 19,6 C 17,2 C 13,3 C 81 % 1019,0 hPa 0,2 l/m 0 min 2 min 0 W/m 3,2 km/h (1 Bft) 97,87 %
23.07.2022 00:16 19,6 C 17,2 C 13,3 C 82 % 1018,9 hPa 0,0 l/m 0 min 2 min 0 W/m 3,2 km/h (1 Bft) 97,83 %
23.07.2022 00:18 19,6 C 16,7 C 12,8 C 83 % 1018,8 hPa 0,2 l/m 0 min 2 min 0 W/m 3,2 km/h (1 Bft) 97,87 %
23.07.2022 00:20 19,4 C 16,7 C 12,8 C 83 % 1018,7 hPa 0,0 l/m 0 min 2 min 0 W/m 0,0 km/h (0 Bft) 95,74 %
23.07.2022 00:22 19,3 C 16,7 C 12,8 C 84 % 1018,7 hPa 0,0 l/m 0 min 2 min 0 W/m 0,0 km/h (0 Bft) 97,87 %
23.07.2022 00:24 19,2 C 16,7 C 12,8 C 84 % 1018,7 hPa 0,2 l/m 0 min 2 min 0 W/m 3,2 km/h (1 Bft) 93,62 %
23.07.2022 00:26 19,1 C 16,1 C 12,8 C 85 % 1018,6 hPa 0,2 l/m 0 min 2 min 0 W/m 0,0 km/h (0 Bft) 97,83 %
23.07.2022 00:28 19,1 C 16,1 C 12,8 C 85 % 1018,7 hPa 0,0 l/m 0 min 2 min 0 W/m 0,0 km/h (0 Bft) 97,87 %
23.07.2022 00:30 18,9 C 16,1 C 12,8 C 86 % 1018,6 hPa 0,2 l/m 0 min 2 min 0 W/m 3,2 km/h (1 Bft) 97,87 %
23.07.2022 00:32 18,9 C 16,1 C 12,8 C 86 % 1018,6 hPa 0,2 l/m 0 min 2 min 0 W/m 0,0 km/h (0 Bft) 97,92 %
23.07.2022 00:34 18,8 C 16,1 C 12,8 C 86 % 1018,5 hPa 0,0 l/m 0 min 2 min 0 W/m 0,0 km/h (0 Bft) 95,74 %
23.07.2022 00:36 18,8 C 16,1 C 12,8 C 87 % 1018,7 hPa 0,2 l/m 0 min 2 min 0 W/m 0,0 km/h (0 Bft) 95,74 %
23.07.2022 00:38 18,8 C 16,1 C 12,8 C 87 % 1018,7 hPa 0,0 l/m 0 min 2 min 0 W/m 0,0 km/h (0 Bft) 97,83 %
23.07.2022 00:40 18,7 C 16,1 C 12,8 C 88 % 1018,7 hPa 0,2 l/m 0 min 2 min 0 W/m 0,0 km/h (0 Bft) 97,87 %
23.07.2022 00:42 18,7 C 16,1 C 12,8 C 88 % 1018,7 hPa 0,0 l/m 0 min 2 min 0 W/m 0,0 km/h (0 Bft) 97,87 %
23.07.2022 00:44 18,6 C 16,1 C 12,8 C 88 % 1018,7 hPa 0,0 l/m 0 min 2 min 0 W/m 3,2 km/h (1 Bft) 97,87 %
23.07.2022 00:46 18,6 C 16,1 C 12,8 C 88 % 1018,6 hPa 0,2 l/m 0 min 2 min 0 W/m 3,2 km/h (1 Bft) 97,87 %
23.07.2022 00:48 18,6 C 16,1 C 12,8 C 89 % 1018,6 hPa 0,0 l/m 0 min 2 min 0 W/m 3,2 km/h (1 Bft) 97,87 %
23.07.2022 00:50 18,5 C 16,1 C 12,8 C 89 % 1018,7 hPa 0,0 l/m 0 min 2 min 0 W/m 0,0 km/h (0 Bft) 100,00 %
23.07.2022 00:52 18,4 C 16,1 C 12,8 C 89 % 1018,8 hPa 0,0 l/m 0 min 2 min 0 W/m 0,0 km/h (0 Bft) 100,00 %
23.07.2022 00:54 18,3 C 16,1 C 12,8 C 89 % 1018,9 hPa 0,0 l/m 0 min 2 min 0 W/m 0,0 km/h (0 Bft) 100,00 %
23.07.2022 00:56 18,3 C 16,1 C 12,8 C 89 % 1018,8 hPa 0,0 l/m 0 min 2 min 0 W/m 0,0 km/h (0 Bft) 97,87 %
23.07.2022 00:58 18,3 C 16,1 C 12,8 C 89 % 1018,8 hPa 0,0 l/m 0 min 0 min 0 W/m 0,0 km/h (0 Bft) 100,00 %
23.07.2022 01:00 18,2 C 16,1 C 12,8 C 90 % 1018,8 hPa 0,0 l/m 0 min 0 min 0 W/m 0,0 km/h (0 Bft) 97,87 %
23.07.2022 01:02 18,2 C 16,1 C 12,8 C 90 % 1018,8 hPa 0,0 l/m 0 min 0 min 0 W/m 0,0 km/h (0 Bft) 100,00 %
23.07.2022 01:04 18,2 C 16,1 C 12,8 C 90 % 1018,8 hPa 0,0 l/m 0 min 0 min 0 W/m 0,0 km/h (0 Bft) 100,00 %
23.07.2022 01:06 18,2 C 16,1 C 12,8 C 90 % 1018,8 hPa 0,0 l/m 0 min 0 min 0 W/m 0,0 km/h (0 Bft) 100,00 %
23.07.2022 01:08 18,1 C 16,1 C 12,8 C 90 % 1018,8 hPa 0,0 l/m 0 min 0 min 0 W/m 0,0 km/h (0 Bft) 100,00 %
23.07.2022 01:10 18,1 C 16,1 C 12,8 C 91 % 1018,7 hPa 0,0 l/m 0 min 0 min 0 W/m 0,0 km/h (0 Bft) 100,00 %
23.07.2022 01:12 18,1 C 16,1 C 12,8 C 91 % 1018,7 hPa 0,0 l/m 0 min 0 min 0 W/m 0,0 km/h (0 Bft) 97,87 %
23.07.2022 01:14 18,1 C 16,1 C 12,8 C 91 % 1018,6 hPa 0,0 l/m 0 min 0 min 0 W/m 3,2 km/h (1 Bft) 100,00 %
23.07.2022 01:16 18,1 C 16,1 C 12,8 C 91 % 1018,7 hPa 0,0 l/m 0 min 0 min 0 W/m 0,0 km/h (0 Bft) 100,00 %
23.07.2022 01:18 18,1 C 16,1 C 12,8 C 91 % 1018,7 hPa 0,0 l/m 0 min 0 min 0 W/m 0,0 km/h (0 Bft) 100,00 %
23.07.2022 01:20 18,1 C 16,1 C 12,8 C 92 % 1018,6 hPa 0,0 l/m 0 min 0 min 0 W/m 0,0 km/h (0 Bft) 95,74 %
23.07.2022 01:22 18,1 C 16,1 C 12,8 C 92 % 1018,6 hPa 0,0 l/m 0 min 0 min 0 W/m 0,0 km/h (0 Bft) 97,87 %
23.07.2022 01:24 18,0 C 16,1 C 12,8 C 92 % 1018,5 hPa 0,0 l/m 0 min 2 min 0 W/m 0,0 km/h (0 Bft) 100,00 %
23.07.2022 01:26 17,9 C 16,1 C 12,8 C 92 % 1018,5 hPa 0,0 l/m 0 min 0 min 0 W/m 3,2 km/h (1 Bft) 100,00 %
23.07.2022 01:28 17,9 C 16,1 C 12,8 C 92 % 1018,5 hPa 0,0 l/m 0 min 0 min 0 W/m 3,2 km/h (1 Bft) 97,87 %
23.07.2022 01:30 17,9 C 16,1 C 12,8 C 92 % 1018,4 hPa 0,0 l/m 0 min 2 min 0 W/m 3,2 km/h (1 Bft) 97,87 %
23.07.2022 01:32 17,8 C 16,1 C 12,8 C 92 % 1018,3 hPa 0,0 l/m 0 min 0 min 0 W/m 3,2 km/h (1 Bft) 97,87 %
23.07.2022 01:34 17,8 C 16,1 C 12,2 C 92 % 1018,3 hPa 0,0 l/m 0 min 0 min 0 W/m 3,2 km/h (1 Bft) 97,87 %
23.07.2022 01:36 17,7 C 16,1 C 12,2 C 92 % 1018,2 hPa 0,0 l/m 0 min 0 min 0 W/m 3,2 km/h (1 Bft) 97,87 %
23.07.2022 01:38 17,7 C 16,1 C 12,2 C 92 % 1018,2 hPa 0,0 l/m 0 min 0 min 0 W/m 3,2 km/h (1 Bft) 95,65 %
23.07.2022 01:40 17,6 C 16,1 C 12,2 C 92 % 1018,2 hPa 0,0 l/m 0 min 0 min 0 W/m 0,0 km/h (0 Bft) 97,87 %
23.07.2022 01:42 17,5 C 16,1 C 12,2 C 93 % 1018,2 hPa 0,0 l/m 0 min 0 min 0 W/m 0,0 km/h (0 Bft) 97,87 %
23.07.2022 01:44 17,4 C 16,1 C 12,2 C 93 % 1018,3 hPa 0,0 l/m 0 min 0 min 0 W/m 0,0 km/h (0 Bft) 97,87 %
23.07.2022 01:46 17,4 C 16,1 C 12,2 C 93 % 1018,3 hPa 0,0 l/m 0 min 0 min 0 W/m 0,0 km/h (0 Bft) 97,87 %
23.07.2022 01:48 17,4 C 16,1 C 12,2 C 93 % 1018,4 hPa 0,0 l/m 0 min 0 min 0 W/m 0,0 km/h (0 Bft) 97,83 %
23.07.2022 01:50 17,4 C 16,1 C 12,2 C 93 % 1018,4 hPa 0,0 l/m 0 min 0 min 0 W/m 0,0 km/h (0 Bft) 97,87 %
23.07.2022 01:52 17,4 C 16,1 C 12,2 C 93 % 1018,4 hPa 0,0 l/m 0 min 0 min 0 W/m 0,0 km/h (0 Bft) 95,74 %
23.07.2022 01:54 17,4 C 16,1 C 12,8 C 93 % 1018,4 hPa 0,0 l/m 0 min 0 min 0 W/m 0,0 km/h (0 Bft) 97,87 %
23.07.2022 01:56 17,4 C 16,1 C 12,8 C 94 % 1018,4 hPa 0,0 l/m 0 min 0 min 0 W/m 0,0 km/h (0 Bft) 95,74 %
23.07.2022 01:58 17,4 C 16,1 C 12,8 C 94 % 1018,3 hPa 0,0 l/m 0 min 0 min 0 W/m 0,0 km/h (0 Bft) 95,74 %
23.07.2022 02:00 17,5 C 16,1 C 12,8 C 94 % 1018,3 hPa 0,0 l/m 0 min 0 min 0 W/m 0,0 km/h (0 Bft) 95,74 %
23.07.2022 02:02 17,5 C 16,1 C 12,8 C 94 % 1018,3 hPa 0,0 l/m 0 min 0 min 0 W/m 0,0 km/h (0 Bft) 95,65 %
23.07.2022 02:04 17,5 C 16,1 C 12,8 C 94 % 1018,3 hPa 0,0 l/m 0 min 0 min 0 W/m 0,0 km/h (0 Bft) 95,74 %
23.07.2022 02:06 17,5 C 16,1 C 12,8 C 94 % 1018,4 hPa 0,0 l/m 0 min 0 min 0 W/m 0,0 km/h (0 Bft) 97,87 %
23.07.2022 02:08 17,5 C 16,1 C 12,8 C 94 % 1018,4 hPa 0,2 l/m 0 min 0 min 0 W/m 0,0 km/h (0 Bft) 97,37 %
23.07.2022 02:10 17,5 C 16,1 C 12,8 C 94 % 1018,3 hPa 0,0 l/m 0 min 0 min 0 W/m 0,0 km/h (0 Bft) 95,74 %
23.07.2022 02:12 17,5 C 16,1 C 12,8 C 94 % 1018,3 hPa 0,0 l/m 0 min 0 min 0 W/m 0,0 km/h (0 Bft) 97,87 %
23.07.2022 02:14 17,4 C 16,1 C 12,8 C 94 % 1018,3 hPa 0,0 l/m 0 min 0 min 0 W/m 0,0 km/h (0 Bft) 95,74 %
23.07.2022 02:16 17,4 C 16,1 C 12,8 C 94 % 1018,4 hPa 0,0 l/m 0 min 0 min 0 W/m 0,0 km/h (0 Bft) 97,83 %
23.07.2022 02:18 17,4 C 16,1 C 12,8 C 94 % 1018,3 hPa 0,0 l/m 0 min 0 min 0 W/m 0,0 km/h (0 Bft) 97,87 %
23.07.2022 02:20 17,4 C 16,1 C 12,8 C 95 % 1018,3 hPa 0,0 l/m 0 min 0 min 0 W/m 0,0 km/h (0 Bft) 97,87 %
23.07.2022 02:22 17,4 C 16,1 C 12,8 C 95 % 1018,3 hPa 0,0 l/m 0 min 0 min 0 W/m 0,0 km/h (0 Bft) 97,87 %
23.07.2022 02:24 17,4 C 16,1 C 12,8 C 95 % 1018,3 hPa 0,0 l/m 0 min 0 min 0 W/m 0,0 km/h (0 Bft) 97,87 %
23.07.2022 02:26 17,4 C 16,1 C 12,8 C 95 % 1018,2 hPa 0,0 l/m 0 min 0 min 0 W/m 0,0 km/h (0 Bft) 95,74 %
23.07.2022 02:28 17,4 C 16,1 C 12,8 C 95 % 1018,2 hPa 0,0 l/m 0 min 0 min 0 W/m 0,0 km/h (0 Bft) 95,65 %
23.07.2022 02:30 17,4 C 16,1 C 12,8 C 95 % 1018,2 hPa 0,0 l/m 0 min 0 min 0 W/m 0,0 km/h (0 Bft) 97,87 %
23.07.2022 02:32 17,4 C 16,1 C 12,8 C 95 % 1018,2 hPa 0,0 l/m 0 min 0 min 0 W/m 0,0 km/h (0 Bft) 93,62 %
23.07.2022 02:34 17,4 C 16,1 C 12,8 C 95 % 1018,3 hPa 0,0 l/m 0 min 0 min 0 W/m 0,0 km/h (0 Bft) 97,87 %
23.07.2022 02:36 17,3 C 16,1 C 12,8 C 95 % 1018,2 hPa 0,0 l/m 0 min 0 min 0 W/m 0,0 km/h (0 Bft) 94,83 %
23.07.2022 02:38 17,3 C 16,1 C 12,8 C 95 % 1018,2 hPa 0,0 l/m 0 min 0 min 0 W/m 0,0 km/h (0 Bft) 97,22 %
23.07.2022 02:40 17,3 C 16,1 C 12,2 C 95 % 1018,2 hPa 0,0 l/m 0 min 0 min 0 W/m 0,0 km/h (0 Bft) 97,83 %
23.07.2022 02:42 17,3 C 16,1 C 12,8 C 95 % 1018,2 hPa 0,0 l/m 0 min 0 min 0 W/m 0,0 km/h (0 Bft) 95,74 %
23.07.2022 02:44 17,3 C 16,1 C 12,2 C 95 % 1018,2 hPa 0,0 l/m 0 min 0 min 0 W/m 0,0 km/h (0 Bft) 93,62 %
23.07.2022 02:46 17,2 C 16,1 C 12,2 C 95 % 1018,2 hPa 0,0 l/m 0 min 0 min 0 W/m 0,0 km/h (0 Bft) 95,74 %
23.07.2022 02:48 17,2 C 16,1 C 12,2 C 95 % 1018,2 hPa 0,0 l/m 0 min 0 min 0 W/m 0,0 km/h (0 Bft) 95,74 %
23.07.2022 02:50 17,2 C 16,1 C 12,2 C 95 % 1018,3 hPa 0,0 l/m 0 min 0 min 0 W/m 0,0 km/h (0 Bft) 95,74 %
23.07.2022 02:52 17,2 C 16,1 C 12,2 C 95 % 1018,3 hPa 0,0 l/m 0 min 0 min 0 W/m 0,0 km/h (0 Bft) 97,83 %
23.07.2022 02:54 17,2 C 15,6 C 12,2 C 95 % 1018,3 hPa 0,0 l/m 0 min 0 min 0 W/m 0,0 km/h (0 Bft) 95,74 %
23.07.2022 02:56 17,1 C 15,6 C 12,2 C 95 % 1018,3 hPa 0,0 l/m 0 min 0 min 0 W/m 0,0 km/h (0 Bft) 95,74 %
23.07.2022 02:58 17,1 C 15,6 C 12,2 C 95 % 1018,3 hPa 0,0 l/m 0 min 0 min 0 W/m 0,0 km/h (0 Bft) 97,87 %
23.07.2022 03:00 17,1 C 15,6 C 12,2 C 95 % 1018,2 hPa 0,0 l/m 0 min 0 min 0 W/m 0,0 km/h (0 Bft) 97,87 %
23.07.2022 03:02 17,1 C 15,6 C 12,2 C 95 % 1018,2 hPa 0,0 l/m 0 min 0 min 0 W/m 0,0 km/h (0 Bft) 95,74 %
23.07.2022 03:04 17,1 C 15,6 C 12,2 C 95 % 1018,2 hPa 0,0 l/m 0 min 0 min 0 W/m 0,0 km/h (0 Bft) 97,83 %
23.07.2022 03:06 17,0 C 15,6 C 12,2 C 95 % 1018,3 hPa 0,0 l/m 0 min 0 min 0 W/m 0,0 km/h (0 Bft) 94,92 %
23.07.2022 03:08 17,0 C 15,6 C 12,2 C 95 % 1018,3 hPa 0,0 l/m 0 min 0 min 0 W/m 0,0 km/h (0 Bft) 100,00 %
23.07.2022 03:10 16,9 C 15,6 C 12,2 C 95 % 1018,3 hPa 0,0 l/m 0 min 0 min 0 W/m 0,0 km/h (0 Bft) 95,74 %
23.07.2022 03:12 16,9 C 15,6 C 12,2 C 95 % 1018,4 hPa 0,0 l/m 0 min 0 min 0 W/m 0,0 km/h (0 Bft) 95,74 %
23.07.2022 03:14 16,9 C 15,6 C 12,2 C 95 % 1018,4 hPa 0,0 l/m 0 min 0 min 0 W/m 0,0 km/h (0 Bft) 95,74 %
23.07.2022 03:16 16,9 C 15,6 C 12,2 C 95 % 1018,4 hPa 0,0 l/m 0 min 0 min 0 W/m 0,0 km/h (0 Bft) 95,65 %
23.07.2022 03:18 16,9 C 15,6 C 12,2 C 95 % 1018,4 hPa 0,0 l/m 0 min 0 min 0 W/m 0,0 km/h (0 Bft) 97,87 %
23.07.2022 03:20 16,9 C 15,6 C 12,2 C 95 % 1018,4 hPa 0,0 l/m 0 min 0 min 0 W/m 0,0 km/h (0 Bft) 95,74 %
23.07.2022 03:22 16,9 C 15,6 C 12,2 C 95 % 1018,4 hPa 0,0 l/m 0 min 0 min 0 W/m 0,0 km/h (0 Bft) 97,87 %
23.07.2022 03:24 16,9 C 16,1 C 12,2 C 95 % 1018,3 hPa 0,0 l/m 0 min 0 min 0 W/m 0,0 km/h (0 Bft) 97,87 %
23.07.2022 03:26 16,9 C 15,6 C 12,2 C 95 % 1018,3 hPa 0,0 l/m 0 min 0 min 0 W/m 0,0 km/h (0 Bft) 95,65 %
23.07.2022 03:28 16,9 C 15,6 C 12,8 C 95 % 1018,3 hPa 0,0 l/m 0 min 0 min 0 W/m 0,0 km/h (0 Bft) 97,87 %
23.07.2022 03:30 16,9 C 15,6 C 12,2 C 95 % 1018,3 hPa 0,0 l/m 0 min 0 min 0 W/m 0,0 km/h (0 Bft) 95,74 %
23.07.2022 03:32 17,0 C 15,6 C 12,2 C 95 % 1018,3 hPa 0,0 l/m 0 min 0 min 0 W/m 0,0 km/h (0 Bft) 97,87 %
23.07.2022 03:34 17,0 C 15,6 C 12,2 C 95 % 1018,2 hPa 0,0 l/m 0 min 0 min 0 W/m 0,0 km/h (0 Bft) 95,74 %
23.07.2022 03:36 17,0 C 15,6 C 12,2 C 95 % 1018,2 hPa 0,0 l/m 0 min 0 min 0 W/m 0,0 km/h (0 Bft) 96,55 %
23.07.2022 03:38 17,0 C 15,6 C 12,2 C 96 % 1018,2 hPa 0,0 l/m 0 min 0 min 0 W/m 0,0 km/h (0 Bft) 97,22 %
23.07.2022 03:40 17,0 C 15,6 C 12,2 C 96 % 1018,2 hPa 0,0 l/m 0 min 0 min 0 W/m 0,0 km/h (0 Bft) 95,65 %
23.07.2022 03:42 17,0 C 15,6 C 12,2 C 96 % 1018,2 hPa 0,0 l/m 0 min 0 min 0 W/m 0,0 km/h (0 Bft) 97,87 %
23.07.2022 03:44 17,0 C 15,6 C 12,2 C 96 % 1018,1 hPa 0,0 l/m 0 min 0 min 0 W/m 0,0 km/h (0 Bft) 95,74 %
23.07.2022 03:46 16,9 C 15,6 C 12,2 C 96 % 1018,2 hPa 0,0 l/m 0 min 0 min 0 W/m 0,0 km/h (0 Bft) 97,87 %
23.07.2022 03:48 16,9 C 15,6 C 12,2 C 96 % 1018,1 hPa 0,0 l/m 0 min 0 min 0 W/m 0,0 km/h (0 Bft) 97,87 %
23.07.2022 03:50 16,9 C 15,6 C 12,2 C 96 % 1018,1 hPa 0,0 l/m 0 min 0 min 0 W/m 0,0 km/h (0 Bft) 100,00 %
23.07.2022 03:52 16,9 C 15,6 C 12,2 C 96 % 1018,1 hPa 0,0 l/m 0 min 0 min 0 W/m 0,0 km/h (0 Bft) 100,00 %
23.07.2022 03:54 16,9 C 15,6 C 12,2 C 95 % 1018,0 hPa 0,0 l/m 0 min 0 min 0 W/m 0,0 km/h (0 Bft) 100,00 %
23.07.2022 03:56 16,9 C 15,6 C 12,2 C 96 % 1018,0 hPa 0,0 l/m 0 min 0 min 0 W/m 0,0 km/h (0 Bft) 100,00 %
23.07.2022 03:58 16,8 C 15,6 C 12,2 C 95 % 1018,0 hPa 0,0 l/m 0 min 0 min 0 W/m 0,0 km/h (0 Bft) 100,00 %
23.07.2022 04:00 16,8 C 15,6 C 12,2 C 95 % 1018,0 hPa 0,0 l/m 0 min 0 min 0 W/m 0,0 km/h (0 Bft) 100,00 %
23.07.2022 04:02 16,8 C 15,6 C 12,2 C 95 % 1018,0 hPa 0,0 l/m 0 min 0 min 0 W/m 0,0 km/h (0 Bft) 96,77 %
23.07.2022 04:04 16,8 C 15,6 C 12,2 C 95 % 1018,1 hPa 0,0 l/m 0 min 0 min 0 W/m 0,0 km/h (0 Bft) 100,00 %
23.07.2022 04:06 16,7 C 15,6 C 12,2 C 95 % 1018,1 hPa 0,0 l/m 0 min 0 min 0 W/m 0,0 km/h (0 Bft) 100,00 %
23.07.2022 04:08 16,7 C 15,6 C 12,2 C 95 % 1018,1 hPa 0,0 l/m 0 min 0 min 0 W/m 0,0 km/h (0 Bft) 100,00 %
23.07.2022 04:10 16,7 C 15,6 C 12,2 C 96 % 1018,2 hPa 0,0 l/m 0 min 0 min 0 W/m 0,0 km/h (0 Bft) 100,00 %
23.07.2022 04:12 16,7 C 15,6 C 12,2 C 96 % 1018,2 hPa 0,0 l/m 0 min 0 min 0 W/m 0,0 km/h (0 Bft) 100,00 %
23.07.2022 04:14 16,7 C 15,6 C 11,7 C 96 % 1018,1 hPa 0,0 l/m 0 min 0 min 0 W/m 0,0 km/h (0 Bft) 100,00 %
23.07.2022 04:16 16,6 C 15,6 C 12,2 C 96 % 1018,1 hPa 0,0 l/m 0 min 0 min 0 W/m 0,0 km/h (0 Bft) 97,87 %
23.07.2022 04:18 16,6 C 15,6 C 12,2 C 96 % 1018,1 hPa 0,0 l/m 0 min 0 min 0 W/m 0,0 km/h (0 Bft) 100,00 %
23.07.2022 04:20 16,6 C 15,6 C 12,2 C 96 % 1018,0 hPa 0,0 l/m 0 min 0 min 0 W/m 0,0 km/h (0 Bft) 100,00 %
23.07.2022 04:22 16,6 C 15,6 C 12,2 C 96 % 1018,0 hPa 0,0 l/m 0 min 0 min 0 W/m 0,0 km/h (0 Bft) 97,87 %
23.07.2022 04:24 16,6 C 15,6 C 12,2 C 96 % 1018,1 hPa 0,0 l/m 0 min 0 min 0 W/m 0,0 km/h (0 Bft) 100,00 %
23.07.2022 04:26 16,6 C 15,6 C 12,2 C 96 % 1018,0 hPa 0,0 l/m 0 min 0 min 0 W/m 0,0 km/h (0 Bft) 100,00 %
23.07.2022 04:28 16,6 C 15,6 C 12,2 C 96 % 1018,0 hPa 0,0 l/m 0 min 0 min 0 W/m 0,0 km/h (0 Bft) 97,87 %
23.07.2022 04:30 16,6 C 15,6 C 12,2 C 96 % 1018,0 hPa 0,0 l/m 0 min 0 min 0 W/m 0,0 km/h (0 Bft) 100,00 %
23.07.2022 04:32 16,6 C 15,6 C 12,2 C 96 % 1018,0 hPa 0,0 l/m 0 min 0 min 0 W/m 0,0 km/h (0 Bft) 97,87 %
23.07.2022 04:34 16,6 C 15,6 C 11,7 C 96 % 1018,0 hPa 0,0 l/m 0 min 0 min 0 W/m 0,0 km/h (0 Bft) 100,00 %
23.07.2022 04:36 16,6 C 15,6 C 11,7 C 96 % 1018,0 hPa 0,0 l/m 0 min 0 min 0 W/m 0,0 km/h (0 Bft) 100,00 %
23.07.2022 04:38 16,6 C 15,6 C 11,7 C 96 % 1018,0 hPa 0,0 l/m 0 min 0 min 0 W/m 0,0 km/h (0 Bft) 100,00 %
23.07.2022 04:40 16,6 C 15,6 C 11,7 C 96 % 1018,0 hPa 0,0 l/m 0 min 0 min 0 W/m 0,0 km/h (0 Bft) 100,00 %
23.07.2022 04:42 16,5 C 15,6 C 11,7 C 96 % 1018,0 hPa 0,0 l/m 0 min 0 min 0 W/m 0,0 km/h (0 Bft) 100,00 %
23.07.2022 04:44 16,5 C 15,0 C 11,7 C 96 % 1018,0 hPa 0,0 l/m 0 min 0 min 0 W/m 0,0 km/h (0 Bft) 100,00 %
23.07.2022 04:46 16,4 C 15,0 C 11,7 C 96 % 1018,0 hPa 0,0 l/m 0 min 0 min 0 W/m 0,0 km/h (0 Bft) 95,74 %
23.07.2022 04:48 16,4 C 15,0 C 11,7 C 96 % 1018,0 hPa 0,0 l/m 0 min 0 min 0 W/m 0,0 km/h (0 Bft) 100,00 %
23.07.2022 04:50 16,4 C 15,0 C 11,7 C 96 % 1018,0 hPa 0,0 l/m 0 min 0 min 0 W/m 0,0 km/h (0 Bft) 100,00 %
23.07.2022 04:52 16,3 C 15,0 C 11,7 C 96 % 1018,0 hPa 0,0 l/m 0 min 0 min 0 W/m 0,0 km/h (0 Bft) 100,00 %
23.07.2022 04:54 16,3 C 15,0 C 11,7 C 96 % 1018,0 hPa 0,0 l/m 0 min 0 min 0 W/m 0,0 km/h (0 Bft) 97,87 %
23.07.2022 04:56 16,3 C 15,0 C 11,7 C 96 % 1018,0 hPa 0,0 l/m 0 min 0 min 0 W/m 0,0 km/h (0 Bft) 100,00 %
23.07.2022 04:58 16,3 C 15,0 C 11,7 C 96 % 1018,0 hPa 0,0 l/m 0 min 0 min 0 W/m 0,0 km/h (0 Bft) 100,00 %
23.07.2022 05:00 16,3 C 15,0 C 11,7 C 96 % 1018,0 hPa 0,0 l/m 0 min 0 min 0 W/m 0,0 km/h (0 Bft) 97,87 %
23.07.2022 05:02 16,2 C 15,0 C 11,1 C 96 % 1018,1 hPa 0,0 l/m 0 min 0 min 0 W/m 0,0 km/h (0 Bft) 95,65 %
23.07.2022 05:04 16,2 C 15,0 C 11,1 C 96 % 1018,1 hPa 0,0 l/m 0 min 0 min 0 W/m 0,0 km/h (0 Bft) 97,87 %
23.07.2022 05:06 16,1 C 15,0 C 11,1 C 96 % 1018,1 hPa 0,0 l/m 0 min 0 min 0 W/m 0,0 km/h (0 Bft) 93,75 %
23.07.2022 05:08 16,1 C 15,0 C 11,1 C 96 % 1018,1 hPa 0,0 l/m 0 min 0 min 0 W/m 0,0 km/h (0 Bft) 93,48 %
23.07.2022 05:10 16,1 C 14,4 C 11,1 C 96 % 1018,0 hPa 0,0 l/m 0 min 0 min 0 W/m 0,0 km/h (0 Bft) 95,74 %
23.07.2022 05:12 16,1 C 14,4 C 11,1 C 96 % 1018,1 hPa 0,0 l/m 0 min 0 min 0 W/m 0,0 km/h (0 Bft) 93,62 %
23.07.2022 05:14 16,0 C 14,4 C 11,1 C 96 % 1018,1 hPa 0,0 l/m 0 min 0 min 0 W/m 0,0 km/h (0 Bft) 93,48 %
23.07.2022 05:16 16,0 C 14,4 C 11,1 C 96 % 1018,1 hPa 0,0 l/m 0 min 0 min 0 W/m 0,0 km/h (0 Bft) 93,62 %
23.07.2022 05:18 15,9 C 14,4 C 11,1 C 96 % 1018,1 hPa 0,0 l/m 0 min 0 min 0 W/m 0,0 km/h (0 Bft) 93,62 %
23.07.2022 05:20 15,9 C 14,4 C 11,1 C 96 % 1018,0 hPa 0,0 l/m 0 min 0 min 0 W/m 0,0 km/h (0 Bft) 93,62 %
23.07.2022 05:22 15,8 C 14,4 C 11,1 C 96 % 1018,1 hPa 0,0 l/m 0 min 0 min 0 W/m 0,0 km/h (0 Bft) 93,62 %
23.07.2022 05:24 15,8 C 14,4 C 11,1 C 96 % 1018,0 hPa 0,0 l/m 0 min 0 min 0 W/m 0,0 km/h (0 Bft) 93,62 %
23.07.2022 05:26 15,8 C 14,4 C 11,1 C 96 % 1018,1 hPa 0,0 l/m 0 min 0 min 0 W/m 0,0 km/h (0 Bft) 91,30 %
23.07.2022 05:28 15,7 C 14,4 C 11,1 C 96 % 1018,1 hPa 0,0 l/m 0 min 0 min 0 W/m 0,0 km/h (0 Bft) 93,62 %
23.07.2022 05:30 15,7 C 14,4 C 11,1 C 96 % 1018,1 hPa 0,0 l/m 0 min 0 min 0 W/m 0,0 km/h (0 Bft) 91,49 %
23.07.2022 05:32 15,7 C 14,4 C 11,1 C 96 % 1018,1 hPa 0,0 l/m 0 min 0 min 0 W/m 0,0 km/h (0 Bft) 93,62 %
23.07.2022 05:34 15,7 C 14,4 C 11,1 C 96 % 1018,1 hPa 0,0 l/m 0 min 0 min 0 W/m 0,0 km/h (0 Bft) 93,62 %
23.07.2022 05:36 15,6 C 14,4 C 11,1 C 96 % 1018,0 hPa 0,0 l/m 0 min 0 min 0 W/m 0,0 km/h (0 Bft) 95,74 %
23.07.2022 05:38 15,6 C 14,4 C 11,1 C 96 % 1018,0 hPa 0,0 l/m 0 min 0 min 0 W/m 0,0 km/h (0 Bft) 95,65 %
23.07.2022 05:40 15,6 C 14,4 C 11,1 C 96 % 1018,1 hPa 0,0 l/m 0 min 0 min 0 W/m 0,0 km/h (0 Bft) 95,74 %
23.07.2022 05:42 15,5 C 14,4 C 11,1 C 96 % 1018,0 hPa 0,0 l/m 0 min 0 min 0 W/m 0,0 km/h (0 Bft) 93,62 %
23.07.2022 05:44 15,5 C 14,4 C 11,1 C 96 % 1018,1 hPa 0,0 l/m 0 min 0 min 0 W/m 0,0 km/h (0 Bft) 95,74 %
23.07.2022 05:46 15,4 C 14,4 C 11,1 C 96 % 1018,1 hPa 0,0 l/m 0 min 0 min 0 W/m 0,0 km/h (0 Bft) 95,74 %
23.07.2022 05:48 15,4 C 14,4 C 11,1 C 96 % 1018,0 hPa 0,0 l/m 0 min 0 min 0 W/m 0,0 km/h (0 Bft) 93,62 %
23.07.2022 05:50 15,4 C 14,4 C 11,1 C 96 % 1018,1 hPa 0,0 l/m 0 min 0 min 0 W/m 0,0 km/h (0 Bft) 95,65 %
23.07.2022 05:52 15,4 C 14,4 C 11,1 C 96 % 1018,1 hPa 0,0 l/m 0 min 0 min 0 W/m 0,0 km/h (0 Bft) 95,74 %
23.07.2022 05:54 15,4 C 13,9 C 11,1 C 96 % 1018,1 hPa 0,0 l/m 0 min 0 min 4 W/m 0,0 km/h (0 Bft) 95,74 %
23.07.2022 05:56 15,4 C 13,9 C 11,1 C 96 % 1018,1 hPa 0,0 l/m 0 min 0 min 5 W/m 0,0 km/h (0 Bft) 95,74 %
23.07.2022 05:58 15,3 C 13,9 C 10,6 C 96 % 1018,0 hPa 0,0 l/m 0 min 0 min 6 W/m 0,0 km/h (0 Bft) 97,87 %
23.07.2022 06:00 15,3 C 13,9 C 10,6 C 96 % 1018,2 hPa 0,0 l/m 0 min 0 min 7 W/m 0,0 km/h (0 Bft) 100,00 %
23.07.2022 06:02 15,3 C 13,9 C 10,6 C 96 % 1018,1 hPa 0,0 l/m 0 min 0 min 7 W/m 0,0 km/h (0 Bft) 100,00 %
23.07.2022 06:04 15,2 C 13,9 C 10,6 C 96 % 1018,2 hPa 0,0 l/m 0 min 0 min 9 W/m 0,0 km/h (0 Bft) 100,00 %
23.07.2022 06:08 15,1 C 13,9 C 10,6 C 96 % 1018,3 hPa 0,0 l/m 0 min 0 min 11 W/m 3,2 km/h (1 Bft) 98,96 %
23.07.2022 06:10 15,1 C 13,9 C 10,6 C 96 % 1018,3 hPa 0,0 l/m 0 min 0 min 11 W/m 0,0 km/h (0 Bft) 100,00 %
23.07.2022 06:12 15,1 C 13,9 C 10,6 C 96 % 1018,3 hPa 0,0 l/m 0 min 0 min 12 W/m 0,0 km/h (0 Bft) 100,00 %
23.07.2022 06:14 15,1 C 13,9 C 10,6 C 96 % 1018,3 hPa 0,0 l/m 0 min 0 min 13 W/m 0,0 km/h (0 Bft) 100,00 %
23.07.2022 06:16 15,1 C 13,9 C 10,6 C 96 % 1018,3 hPa 0,0 l/m 0 min 0 min 14 W/m 0,0 km/h (0 Bft) 100,00 %
23.07.2022 06:18 15,0 C 13,9 C 10,6 C 96 % 1018,3 hPa 0,0 l/m 0 min 0 min 15 W/m 0,0 km/h (0 Bft) 97,87 %
23.07.2022 06:20 15,0 C 13,9 C 10,6 C 96 % 1018,3 hPa 0,0 l/m 0 min 0 min 16 W/m 0,0 km/h (0 Bft) 100,00 %
23.07.2022 06:22 15,1 C 13,9 C 10,6 C 96 % 1018,3 hPa 0,0 l/m 0 min 0 min 18 W/m 0,0 km/h (0 Bft) 100,00 %
23.07.2022 06:24 15,0 C 13,9 C 10,6 C 96 % 1018,3 hPa 0,0 l/m 0 min 0 min 18 W/m 0,0 km/h (0 Bft) 100,00 %
23.07.2022 06:26 15,0 C 13,9 C 10,6 C 96 % 1018,3 hPa 0,0 l/m 0 min 0 min 19 W/m 0,0 km/h (0 Bft) 97,87 %
23.07.2022 06:28 15,0 C 13,9 C 10,6 C 96 % 1018,3 hPa 0,0 l/m 0 min 0 min 19 W/m 0,0 km/h (0 Bft) 100,00 %
23.07.2022 06:30 15,0 C 13,9 C 10,6 C 96 % 1018,3 hPa 0,0 l/m 0 min 0 min 20 W/m 0,0 km/h (0 Bft) 100,00 %
23.07.2022 06:32 15,0 C 13,9 C 10,6 C 96 % 1018,3 hPa 0,0 l/m 0 min 0 min 21 W/m 0,0 km/h (0 Bft) 100,00 %
23.07.2022 06:34 14,9 C 13,9 C 10,6 C 96 % 1018,3 hPa 0,0 l/m 0 min 0 min 23 W/m 0,0 km/h (0 Bft) 100,00 %
23.07.2022 06:36 14,9 C 13,9 C 10,6 C 96 % 1018,4 hPa 0,0 l/m 0 min 0 min 23 W/m 0,0 km/h (0 Bft) 100,00 %
23.07.2022 06:38 14,9 C 13,9 C 10,6 C 96 % 1018,4 hPa 0,0 l/m 0 min 0 min 25 W/m 0,0 km/h (0 Bft) 97,87 %
23.07.2022 06:40 14,9 C 13,9 C 10,6 C 96 % 1018,4 hPa 0,0 l/m 0 min 0 min 25 W/m 0,0 km/h (0 Bft) 100,00 %
23.07.2022 06:42 14,9 C 13,9 C 10,6 C 96 % 1018,5 hPa 0,0 l/m 0 min 0 min 26 W/m 3,2 km/h (1 Bft) 100,00 %
23.07.2022 06:44 14,9 C 13,9 C 10,6 C 96 % 1018,5 hPa 0,0 l/m 0 min 0 min 26 W/m 0,0 km/h (0 Bft) 100,00 %
23.07.2022 06:46 14,9 C 13,9 C 10,6 C 96 % 1018,5 hPa 0,0 l/m 0 min 0 min 28 W/m 3,2 km/h (1 Bft) 100,00 %
23.07.2022 06:48 14,8 C 13,9 C 10,6 C 96 % 1018,5 hPa 0,0 l/m 0 min 0 min 29 W/m 3,2 km/h (1 Bft) 100,00 %
23.07.2022 06:50 14,8 C 13,9 C 10,6 C 96 % 1018,6 hPa 0,0 l/m 0 min 0 min 30 W/m 3,2 km/h (1 Bft) 97,87 %
23.07.2022 06:52 14,8 C 13,9 C 10,6 C 96 % 1018,6 hPa 0,0 l/m 0 min 0 min 31 W/m 3,2 km/h (1 Bft) 97,87 %
23.07.2022 06:54 14,8 C 13,9 C 10,6 C 96 % 1018,6 hPa 0,0 l/m 0 min 0 min 32 W/m 3,2 km/h (1 Bft) 97,87 %
23.07.2022 06:56 14,8 C 13,9 C 10,6 C 96 % 1018,6 hPa 0,0 l/m 0 min 0 min 33 W/m 3,2 km/h (1 Bft) 97,87 %
23.07.2022 06:58 14,8 C 13,9 C 10,6 C 97 % 1018,7 hPa 0,0 l/m 0 min 0 min 33 W/m 3,2 km/h (1 Bft) 97,87 %
23.07.2022 07:00 14,8 C 13,9 C 10,6 C 97 % 1018,7 hPa 0,0 l/m 0 min 0 min 35 W/m 3,2 km/h (1 Bft) 97,83 %
23.07.2022 07:02 14,8 C 13,9 C 10,6 C 97 % 1018,7 hPa 0,0 l/m 0 min 0 min 36 W/m 3,2 km/h (1 Bft) 95,83 %
23.07.2022 07:04 14,8 C 13,9 C 10,6 C 97 % 1018,8 hPa 0,0 l/m 0 min 0 min 37 W/m 3,2 km/h (1 Bft) 97,87 %
23.07.2022 07:06 14,8 C 13,9 C 10,6 C 97 % 1018,8 hPa 0,0 l/m 0 min 0 min 38 W/m 0,0 km/h (0 Bft) 97,87 %
23.07.2022 07:08 14,8 C 13,9 C 10,6 C 97 % 1018,7 hPa 0,0 l/m 0 min 0 min 39 W/m 6,4 km/h (2 Bft) 97,87 %
23.07.2022 07:10 14,8 C 14,4 C 10,6 C 97 % 1018,8 hPa 0,0 l/m 0 min 0 min 40 W/m 3,2 km/h (1 Bft) 97,87 %
23.07.2022 07:12 14,8 C 14,4 C 10,6 C 97 % 1018,7 hPa 0,0 l/m 0 min 0 min 41 W/m 0,0 km/h (0 Bft) 97,83 %
23.07.2022 07:14 14,8 C 14,4 C 10,6 C 97 % 1018,7 hPa 0,0 l/m 0 min 0 min 42 W/m 0,0 km/h (0 Bft) 95,74 %
23.07.2022 07:16 14,9 C 14,4 C 10,6 C 97 % 1018,7 hPa 0,0 l/m 0 min 0 min 44 W/m 3,2 km/h (1 Bft) 97,87 %
23.07.2022 07:18 14,9 C 14,4 C 10,6 C 97 % 1018,7 hPa 0,0 l/m 0 min 0 min 45 W/m 6,4 km/h (2 Bft) 97,87 %
23.07.2022 07:20 14,9 C 14,4 C 10,6 C 97 % 1018,8 hPa 0,0 l/m 0 min 0 min 46 W/m 3,2 km/h (1 Bft) 100,00 %
23.07.2022 07:22 15,0 C 14,4 C 10,6 C 97 % 1018,7 hPa 0,0 l/m 0 min 0 min 47 W/m 3,2 km/h (1 Bft) 100,00 %
23.07.2022 07:24 15,0 C 14,4 C 10,6 C 97 % 1018,8 hPa 0,0 l/m 0 min 0 min 48 W/m 3,2 km/h (1 Bft) 100,00 %
23.07.2022 07:26 15,0 C 14,4 C 10,6 C 97 % 1018,9 hPa 0,0 l/m 0 min 0 min 49 W/m 0,0 km/h (0 Bft) 97,87 %
23.07.2022 07:28 15,0 C 14,4 C 11,1 C 97 % 1018,8 hPa 0,0 l/m 0 min 0 min 51 W/m 0,0 km/h (0 Bft) 100,00 %
23.07.2022 07:30 15,1 C 14,4 C 11,1 C 97 % 1018,9 hPa 0,0 l/m 0 min 0 min 51 W/m 0,0 km/h (0 Bft) 97,87 %
23.07.2022 07:32 15,1 C 15,0 C 11,1 C 97 % 1018,8 hPa 0,0 l/m 0 min 0 min 53 W/m 0,0 km/h (0 Bft) 100,00 %
23.07.2022 07:34 15,1 C 15,0 C 11,1 C 97 % 1018,8 hPa 0,0 l/m 0 min 0 min 53 W/m 0,0 km/h (0 Bft) 100,00 %
23.07.2022 07:36 15,1 C 15,0 C 11,1 C 97 % 1018,8 hPa 0,0 l/m 0 min 0 min 54 W/m 0,0 km/h (0 Bft) 100,00 %
23.07.2022 07:38 15,1 C 15,0 C 11,1 C 97 % 1018,8 hPa 0,0 l/m 0 min 0 min 54 W/m 3,2 km/h (1 Bft) 100,00 %
23.07.2022 07:40 15,2 C 15,0 C 11,1 C 97 % 1018,8 hPa 0,0 l/m 0 min 0 min 54 W/m 0,0 km/h (0 Bft) 97,87 %
23.07.2022 07:42 15,2 C 15,0 C 11,1 C 97 % 1018,9 hPa 0,0 l/m 0 min 0 min 56 W/m 0,0 km/h (0 Bft) 100,00 %
23.07.2022 07:44 15,2 C 15,0 C 11,1 C 97 % 1018,9 hPa 0,0 l/m 0 min 0 min 58 W/m 0,0 km/h (0 Bft) 100,00 %
23.07.2022 07:46 15,3 C 15,0 C 11,1 C 97 % 1018,9 hPa 0,0 l/m 0 min 0 min 59 W/m 0,0 km/h (0 Bft) 100,00 %
23.07.2022 07:48 15,3 C 15,0 C 11,1 C 97 % 1019,0 hPa 0,0 l/m 0 min 0 min 60 W/m 0,0 km/h (0 Bft) 97,87 %
23.07.2022 07:50 15,3 C 15,0 C 11,1 C 97 % 1019,0 hPa 0,0 l/m 0 min 0 min 62 W/m 0,0 km/h (0 Bft) 97,83 %
23.07.2022 07:52 15,3 C 15,6 C 11,1 C 97 % 1019,0 hPa 0,0 l/m 0 min 0 min 63 W/m 0,0 km/h (0 Bft) 97,87 %
23.07.2022 07:54 15,4 C 15,6 C 11,1 C 97 % 1019,0 hPa 0,0 l/m 0 min 0 min 63 W/m 0,0 km/h (0 Bft) 95,74 %
23.07.2022 07:56 15,4 C 15,6 C 11,1 C 97 % 1019,1 hPa 0,0 l/m 0 min 0 min 65 W/m 0,0 km/h (0 Bft) 97,87 %
23.07.2022 07:58 15,4 C 15,6 C 11,7 C 97 % 1019,0 hPa 0,0 l/m 0 min 0 min 66 W/m 0,0 km/h (0 Bft) 97,87 %
23.07.2022 08:00 15,5 C 15,6 C 11,7 C 97 % 1019,0 hPa 0,0 l/m 0 min 0 min 92 W/m 0,0 km/h (0 Bft) 97,87 %
23.07.2022 08:02 15,6 C 15,6 C 11,7 C 97 % 1019,1 hPa 0,0 l/m 2 min 0 min 184 W/m 0,0 km/h (0 Bft) 93,48 %
23.07.2022 08:04 15,6 C 15,6 C 11,7 C 97 % 1019,1 hPa 0,0 l/m 2 min 0 min 213 W/m 0,0 km/h (0 Bft) 97,87 %
23.07.2022 08:06 15,6 C 15,6 C 11,7 C 98 % 1019,1 hPa 0,0 l/m 2 min 0 min 220 W/m 0,0 km/h (0 Bft) 98,31 %
23.07.2022 08:08 15,7 C 15,6 C 11,7 C 98 % 1019,2 hPa 0,0 l/m 2 min 0 min 227 W/m 0,0 km/h (0 Bft) 97,14 %
23.07.2022 08:10 15,7 C 15,6 C 11,7 C 98 % 1019,2 hPa 0,0 l/m 2 min 0 min 231 W/m 0,0 km/h (0 Bft) 97,87 %
23.07.2022 08:12 15,7 C 16,1 C 11,7 C 98 % 1019,2 hPa 0,0 l/m 2 min 0 min 236 W/m 0,0 km/h (0 Bft) 95,74 %
23.07.2022 08:14 15,8 C 16,1 C 11,7 C 98 % 1019,2 hPa 0,0 l/m 2 min 0 min 241 W/m 0,0 km/h (0 Bft) 95,65 %
23.07.2022 08:16 15,8 C 16,1 C 11,7 C 98 % 1019,2 hPa 0,0 l/m 2 min 0 min 239 W/m 0,0 km/h (0 Bft) 95,74 %
23.07.2022 08:18 15,9 C 16,1 C 11,7 C 98 % 1019,2 hPa 0,0 l/m 2 min 0 min 245 W/m 0,0 km/h (0 Bft) 95,74 %
23.07.2022 08:20 15,9 C 16,7 C 11,7 C 98 % 1019,2 hPa 0,0 l/m 2 min 0 min 223 W/m 0,0 km/h (0 Bft) 93,62 %
23.07.2022 08:22 16,0 C 16,7 C 11,7 C 98 % 1019,2 hPa 0,0 l/m 2 min 0 min 239 W/m 0,0 km/h (0 Bft) 94,44 %
23.07.2022 08:24 16,1 C 16,7 C 11,7 C 98 % 1019,2 hPa 0,0 l/m 2 min 0 min 274 W/m 0,0 km/h (0 Bft) 95,74 %
23.07.2022 08:26 16,1 C 17,2 C 12,2 C 98 % 1019,2 hPa 0,0 l/m 2 min 0 min 280 W/m 0,0 km/h (0 Bft) 95,65 %
23.07.2022 08:28 16,2 C 17,2 C 12,2 C 98 % 1019,2 hPa 0,0 l/m 2 min 0 min 288 W/m 0,0 km/h (0 Bft) 95,74 %
23.07.2022 08:30 16,2 C 17,8 C 12,2 C 98 % 1019,2 hPa 0,0 l/m 2 min 0 min 294 W/m 0,0 km/h (0 Bft) 95,74 %
23.07.2022 08:32 16,3 C 18,9 C 12,2 C 98 % 1019,2 hPa 0,0 l/m 2 min 0 min 300 W/m 6,4 km/h (2 Bft) 95,74 %
23.07.2022 08:34 16,4 C 18,9 C 12,2 C 98 % 1019,2 hPa 0,0 l/m 2 min 0 min 312 W/m 6,4 km/h (2 Bft) 95,74 %
23.07.2022 08:36 16,6 C 19,4 C 12,8 C 98 % 1019,3 hPa 0,0 l/m 2 min 0 min 317 W/m 3,2 km/h (1 Bft) 93,48 %
23.07.2022 08:38 16,6 C 20,0 C 12,8 C 98 % 1019,2 hPa 0,0 l/m 2 min 0 min 321 W/m 3,2 km/h (1 Bft) 95,74 %
23.07.2022 08:40 16,7 C 19,4 C 13,3 C 98 % 1019,2 hPa 0,0 l/m 2 min 0 min 327 W/m 3,2 km/h (1 Bft) 95,74 %
23.07.2022 08:42 16,8 C 20,0 C 13,3 C 98 % 1019,2 hPa 0,0 l/m 2 min 0 min 334 W/m 6,4 km/h (2 Bft) 95,74 %
23.07.2022 08:44 16,8 C 19,4 C 13,3 C 98 % 1019,2 hPa 0,0 l/m 2 min 0 min 341 W/m 6,4 km/h (2 Bft) 93,62 %
23.07.2022 08:46 16,9 C 20,0 C 13,9 C 98 % 1019,2 hPa 0,0 l/m 2 min 0 min 346 W/m 3,2 km/h (1 Bft) 93,62 %
23.07.2022 08:48 17,0 C 20,0 C 13,9 C 97 % 1019,3 hPa 0,0 l/m 2 min 0 min 353 W/m 3,2 km/h (1 Bft) 95,65 %
23.07.2022 08:50 17,1 C 20,0 C 13,9 C 97 % 1019,3 hPa 0,0 l/m 2 min 0 min 357 W/m 6,4 km/h (2 Bft) 97,87 %
23.07.2022 08:52 17,2 C 20,6 C 14,4 C 97 % 1019,3 hPa 0,0 l/m 2 min 0 min 363 W/m 6,4 km/h (2 Bft) 95,74 %
23.07.2022 08:54 17,3 C 21,1 C 15,0 C 97 % 1019,4 hPa 0,0 l/m 2 min 0 min 371 W/m 6,4 km/h (2 Bft) 93,62 %
23.07.2022 08:56 17,4 C 22,2 C 15,0 C 97 % 1019,4 hPa 0,0 l/m 2 min 0 min 376 W/m 3,2 km/h (1 Bft) 97,87 %
23.07.2022 08:58 17,5 C 22,8 C 15,6 C 97 % 1019,4 hPa 0,0 l/m 2 min 0 min 381 W/m 3,2 km/h (1 Bft) 97,87 %
23.07.2022 09:00 17,6 C 22,8 C 15,6 C 96 % 1019,4 hPa 0,0 l/m 2 min 0 min 388 W/m 6,4 km/h (2 Bft) 97,83 %
23.07.2022 09:02 17,6 C 22,2 C 15,6 C 96 % 1019,4 hPa 0,0 l/m 2 min 0 min 395 W/m 6,4 km/h (2 Bft) 97,87 %
23.07.2022 09:04 17,7 C 22,8 C 16,1 C 95 % 1019,3 hPa 0,0 l/m 2 min 0 min 402 W/m 12,9 km/h (3 Bft) 95,74 %
23.07.2022 09:06 17,8 C 23,3 C 16,1 C 95 % 1019,3 hPa 0,0 l/m 2 min 0 min 410 W/m 9,7 km/h (2 Bft) 97,87 %
23.07.2022 09:08 17,9 C 22,8 C 16,1 C 94 % 1019,3 hPa 0,0 l/m 2 min 0 min 413 W/m 9,7 km/h (2 Bft) 97,87 %
23.07.2022 09:10 17,9 C 22,8 C 16,1 C 93 % 1019,3 hPa 0,0 l/m 2 min 0 min 421 W/m 9,7 km/h (2 Bft) 97,50 %
23.07.2022 09:12 17,9 C 23,9 C 16,7 C 92 % 1019,3 hPa 0,0 l/m 2 min 0 min 429 W/m 6,4 km/h (2 Bft) 97,87 %
23.07.2022 09:14 18,1 C 23,9 C 16,7 C 92 % 1019,3 hPa 0,0 l/m 2 min 0 min 430 W/m 9,7 km/h (2 Bft) 97,87 %
23.07.2022 09:16 18,1 C 23,9 C 16,7 C 92 % 1019,3 hPa 0,0 l/m 2 min 0 min 426 W/m 3,2 km/h (1 Bft) 97,83 %
23.07.2022 09:18 18,2 C 23,9 C 17,2 C 91 % 1019,4 hPa 0,0 l/m 2 min 0 min 438 W/m 3,2 km/h (1 Bft) 97,87 %
23.07.2022 09:20 18,3 C 23,9 C 17,2 C 90 % 1019,3 hPa 0,0 l/m 2 min 0 min 413 W/m 12,9 km/h (3 Bft) 95,74 %
23.07.2022 09:22 18,4 C 23,9 C 17,2 C 90 % 1019,4 hPa 0,0 l/m 2 min 0 min 463 W/m 9,7 km/h (2 Bft) 100,00 %
23.07.2022 09:24 18,4 C 23,3 C 17,2 C 89 % 1019,4 hPa 0,0 l/m 2 min 0 min 445 W/m 9,7 km/h (2 Bft) 100,00 %
23.07.2022 09:26 18,4 C 23,9 C 17,2 C 89 % 1019,5 hPa 0,0 l/m 2 min 0 min 451 W/m 6,4 km/h (2 Bft) 100,00 %
23.07.2022 09:28 18,6 C 24,4 C 17,8 C 89 % 1019,4 hPa 0,0 l/m 2 min 0 min 477 W/m 9,7 km/h (2 Bft) 97,87 %
23.07.2022 09:30 18,7 C 24,4 C 17,8 C 88 % 1019,5 hPa 0,0 l/m 2 min 0 min 479 W/m 9,7 km/h (2 Bft) 97,87 %
23.07.2022 09:32 18,8 C 23,9 C 17,8 C 87 % 1019,5 hPa 0,0 l/m 2 min 0 min 477 W/m 9,7 km/h (2 Bft) 100,00 %
23.07.2022 09:34 18,8 C 23,9 C 17,8 C 86 % 1019,5 hPa 0,0 l/m 2 min 0 min 473 W/m 12,9 km/h (3 Bft) 97,87 %
23.07.2022 09:36 18,9 C 23,9 C 17,8 C 86 % 1019,5 hPa 0,0 l/m 2 min 0 min 502 W/m 9,7 km/h (2 Bft) 100,00 %
23.07.2022 09:38 19,0 C 24,4 C 17,8 C 86 % 1019,5 hPa 0,0 l/m 2 min 0 min 513 W/m 9,7 km/h (2 Bft) 100,00 %
23.07.2022 09:40 19,1 C 24,4 C 17,8 C 85 % 1019,5 hPa 0,0 l/m 2 min 0 min 518 W/m 12,9 km/h (3 Bft) 100,00 %
23.07.2022 09:42 19,1 C 24,4 C 17,8 C 85 % 1019,5 hPa 0,0 l/m 2 min 0 min 500 W/m 9,7 km/h (2 Bft) 100,00 %
23.07.2022 09:44 19,2 C 24,4 C 17,8 C 84 % 1019,5 hPa 0,0 l/m 2 min 0 min 489 W/m 9,7 km/h (2 Bft) 100,00 %
23.07.2022 09:46 19,3 C 24,4 C 17,8 C 83 % 1019,6 hPa 0,0 l/m 2 min 0 min 487 W/m 12,9 km/h (3 Bft) 95,74 %
23.07.2022 09:48 19,4 C 24,4 C 17,8 C 83 % 1019,6 hPa 0,0 l/m 2 min 0 min 532 W/m 3,2 km/h (1 Bft) 100,00 %
23.07.2022 09:50 19,5 C 23,9 C 17,8 C 82 % 1019,6 hPa 0,0 l/m 2 min 0 min 538 W/m 9,7 km/h (2 Bft) 100,00 %
23.07.2022 09:52 19,6 C 23,9 C 17,8 C 82 % 1019,6 hPa 0,0 l/m 2 min 0 min 547 W/m 12,9 km/h (3 Bft) 98,21 %
23.07.2022 09:54 19,6 C 23,9 C 17,8 C 82 % 1019,6 hPa 0,0 l/m 2 min 0 min 555 W/m 16,1 km/h (3 Bft) 100,00 %
23.07.2022 09:56 19,6 C 23,9 C 17,8 C 81 % 1019,6 hPa 0,0 l/m 2 min 0 min 566 W/m 9,7 km/h (2 Bft) 100,00 %
23.07.2022 09:58 19,7 C 23,9 C 17,8 C 81 % 1019,6 hPa 0,0 l/m 2 min 0 min 575 W/m 12,9 km/h (3 Bft) 100,00 %
23.07.2022 10:00 19,7 C 23,3 C 17,8 C 81 % 1019,6 hPa 0,0 l/m 2 min 0 min 568 W/m 3,2 km/h (1 Bft) 100,00 %
23.07.2022 10:02 19,7 C 23,3 C 17,2 C 80 % 1019,6 hPa 0,0 l/m 2 min 0 min 570 W/m 9,7 km/h (2 Bft) 100,00 %
23.07.2022 10:04 19,8 C 23,9 C 17,2 C 81 % 1019,6 hPa 0,0 l/m 2 min 0 min 574 W/m 9,7 km/h (2 Bft) 100,00 %
23.07.2022 10:06 19,8 C 23,3 C 17,2 C 80 % 1019,6 hPa 0,0 l/m 2 min 0 min 579 W/m 6,4 km/h (2 Bft) 100,00 %
23.07.2022 10:08 19,8 C 23,9 C 17,2 C 80 % 1019,6 hPa 0,0 l/m 2 min 0 min 602 W/m 16,1 km/h (3 Bft) 100,00 %
23.07.2022 10:10 19,9 C 23,9 C 16,7 C 79 % 1019,7 hPa 0,0 l/m 2 min 0 min 590 W/m 19,3 km/h (3 Bft) 100,00 %
23.07.2022 10:12 19,9 C 23,3 C 16,7 C 79 % 1019,8 hPa 0,0 l/m 2 min 0 min 596 W/m 6,4 km/h (2 Bft) 100,00 %
23.07.2022 10:14 19,8 C 22,2 C 16,1 C 78 % 1019,7 hPa 0,0 l/m 0 min 0 min 304 W/m 12,9 km/h (3 Bft) 100,00 %
23.07.2022 10:16 19,8 C 22,2 C 16,1 C 78 % 1019,7 hPa 0,0 l/m 2 min 0 min 438 W/m 9,7 km/h (2 Bft) 100,00 %
23.07.2022 10:18 19,8 C 22,8 C 16,7 C 78 % 1019,8 hPa 0,0 l/m 2 min 0 min 549 W/m 9,7 km/h (2 Bft) 100,00 %
23.07.2022 10:20 19,8 C 22,8 C 16,7 C 79 % 1019,8 hPa 0,0 l/m 2 min 0 min 612 W/m 6,4 km/h (2 Bft) 100,00 %
23.07.2022 10:22 19,8 C 22,2 C 16,7 C 79 % 1019,8 hPa 0,0 l/m 2 min 0 min 610 W/m 9,7 km/h (2 Bft) 97,87 %
23.07.2022 10:24 19,8 C 22,2 C 16,7 C 79 % 1019,9 hPa 0,0 l/m 2 min 0 min 625 W/m 12,9 km/h (3 Bft) 100,00 %
23.07.2022 10:26 19,9 C 21,7 C 16,7 C 79 % 1019,9 hPa 0,0 l/m 2 min 0 min 633 W/m 6,4 km/h (2 Bft) 100,00 %
23.07.2022 10:28 20,0 C 21,1 C 16,7 C 78 % 1019,8 hPa 0,0 l/m 2 min 0 min 634 W/m 9,7 km/h (2 Bft) 97,87 %
23.07.2022 10:30 20,1 C 21,1 C 16,7 C 78 % 1019,8 hPa 0,0 l/m 2 min 0 min 641 W/m 9,7 km/h (2 Bft) 100,00 %
23.07.2022 10:32 20,1 C 21,7 C 16,7 C 79 % 1019,8 hPa 0,0 l/m 2 min 0 min 644 W/m 19,3 km/h (3 Bft) 97,87 %
23.07.2022 10:34 20,2 C 21,1 C 16,7 C 78 % 1019,8 hPa 0,0 l/m 2 min 0 min 645 W/m 12,9 km/h (3 Bft) 97,87 %
23.07.2022 10:36 20,3 C 21,1 C 16,7 C 78 % 1019,9 hPa 0,0 l/m 2 min 0 min 656 W/m 6,4 km/h (2 Bft) 97,83 %
23.07.2022 10:38 20,3 C 21,1 C 16,7 C 78 % 1019,8 hPa 0,0 l/m 2 min 0 min 659 W/m 9,7 km/h (2 Bft) 100,00 %
23.07.2022 10:40 20,4 C 21,7 C 16,7 C 78 % 1019,8 hPa 0,0 l/m 2 min 0 min 668 W/m 6,4 km/h (2 Bft) 100,00 %
23.07.2022 10:42 20,5 C 21,1 C 17,2 C 77 % 1019,8 hPa 0,0 l/m 2 min 0 min 675 W/m 6,4 km/h (2 Bft) 100,00 %
23.07.2022 10:44 20,6 C 21,1 C 17,2 C 77 % 1019,9 hPa 0,0 l/m 2 min 0 min 676 W/m 9,7 km/h (2 Bft) 97,87 %
23.07.2022 10:46 20,6 C 21,1 C 17,2 C 76 % 1019,9 hPa 0,0 l/m 2 min 0 min 680 W/m 9,7 km/h (2 Bft) 95,74 %
23.07.2022 10:48 20,6 C 21,7 C 17,8 C 75 % 1019,9 hPa 0,0 l/m 2 min 0 min 687 W/m 9,7 km/h (2 Bft) 95,65 %
23.07.2022 10:50 20,6 C 21,7 C 17,8 C 76 % 1019,9 hPa 0,0 l/m 2 min 0 min 687 W/m 6,4 km/h (2 Bft) 95,74 %
23.07.2022 10:52 20,6 C 21,7 C 17,8 C 74 % 1019,9 hPa 0,0 l/m 2 min 0 min 692 W/m 6,4 km/h (2 Bft) 95,74 %
23.07.2022 10:54 20,7 C 22,2 C 17,8 C 74 % 1020,0 hPa 0,0 l/m 2 min 0 min 693 W/m 9,7 km/h (2 Bft) 93,62 %
23.07.2022 10:56 20,8 C 22,8 C 17,8 C 73 % 1020,0 hPa 0,0 l/m 2 min 0 min 698 W/m 16,1 km/h (3 Bft) 93,62 %
23.07.2022 10:58 20,8 C 22,8 C 17,8 C 72 % 1020,0 hPa 0,0 l/m 2 min 0 min 699 W/m 9,7 km/h (2 Bft) 95,74 %
23.07.2022 11:00 20,9 C 22,8 C 18,3 C 72 % 1019,9 hPa 0,0 l/m 2 min 0 min 698 W/m 9,7 km/h (2 Bft) 95,65 %
23.07.2022 11:02 21,0 C 23,3 C 18,3 C 72 % 1020,0 hPa 0,0 l/m 2 min 0 min 704 W/m 12,9 km/h (3 Bft) 95,74 %
23.07.2022 11:04 21,0 C 23,3 C 17,8 C 72 % 1019,9 hPa 0,0 l/m 2 min 0 min 706 W/m 9,7 km/h (2 Bft) 95,74 %
23.07.2022 11:06 21,1 C 23,3 C 17,8 C 73 % 1019,9 hPa 0,0 l/m 2 min 0 min 713 W/m 12,9 km/h (3 Bft) 95,74 %
23.07.2022 11:08 21,1 C 23,3 C 17,8 C 72 % 1019,9 hPa 0,0 l/m 2 min 0 min 717 W/m 12,9 km/h (3 Bft) 95,74 %
23.07.2022 11:10 21,1 C 23,3 C 17,8 C 72 % 1019,9 hPa 0,0 l/m 2 min 0 min 726 W/m 6,4 km/h (2 Bft) 95,74 %
23.07.2022 11:12 21,1 C 23,9 C 17,8 C 72 % 1019,9 hPa 0,0 l/m 2 min 0 min 731 W/m 12,9 km/h (3 Bft) 93,48 %
23.07.2022 11:14 21,2 C 23,9 C 17,8 C 71 % 1019,9 hPa 0,0 l/m 2 min 0 min 734 W/m 9,7 km/h (2 Bft) 95,74 %
23.07.2022 11:16 21,3 C 24,4 C 17,8 C 72 % 1019,9 hPa 0,0 l/m 2 min 0 min 739 W/m 9,7 km/h (2 Bft) 95,74 %
23.07.2022 11:18 21,3 C 23,9 C 17,8 C 72 % 1019,9 hPa 0,0 l/m 2 min 0 min 748 W/m 12,9 km/h (3 Bft) 95,74 %
23.07.2022 11:20 21,4 C 23,9 C 17,2 C 70 % 1019,9 hPa 0,0 l/m 2 min 0 min 755 W/m 9,7 km/h (2 Bft) 97,87 %
23.07.2022 11:22 21,4 C 23,9 C 17,2 C 70 % 1019,8 hPa 0,0 l/m 2 min 0 min 761 W/m 6,4 km/h (2 Bft) 97,87 %
23.07.2022 11:24 21,4 C 23,3 C 17,2 C 70 % 1019,8 hPa 0,0 l/m 2 min 0 min 763 W/m 9,7 km/h (2 Bft) 93,48 %
23.07.2022 11:26 21,6 C 23,9 C 17,8 C 71 % 1019,9 hPa 0,0 l/m 2 min 0 min 767 W/m 9,7 km/h (2 Bft) 97,87 %
23.07.2022 11:28 21,4 C 23,3 C 17,2 C 69 % 1019,9 hPa 0,0 l/m 2 min 0 min 770 W/m 12,9 km/h (3 Bft) 97,87 %
23.07.2022 11:30 21,4 C 23,9 C 17,8 C 71 % 1019,9 hPa 0,0 l/m 2 min 0 min 765 W/m 9,7 km/h (2 Bft) 100,00 %
23.07.2022 11:32 21,6 C 23,9 C 17,8 C 70 % 1019,9 hPa 0,0 l/m 2 min 0 min 771 W/m 6,4 km/h (2 Bft) 100,00 %
23.07.2022 11:34 21,6 C 24,4 C 17,8 C 70 % 1019,9 hPa 0,0 l/m 2 min 0 min 776 W/m 6,4 km/h (2 Bft) 100,00 %
23.07.2022 11:36 21,7 C 25,0 C 17,8 C 70 % 1019,9 hPa 0,0 l/m 2 min 0 min 780 W/m 19,3 km/h (3 Bft) 97,83 %
23.07.2022 11:38 21,8 C 25,0 C 18,3 C 68 % 1020,0 hPa 0,0 l/m 2 min 0 min 790 W/m 12,9 km/h (3 Bft) 100,00 %
23.07.2022 11:40 21,8 C 24,4 C 18,3 C 68 % 1019,9 hPa 0,0 l/m 2 min 0 min 790 W/m 9,7 km/h (2 Bft) 97,87 %
23.07.2022 11:42 21,8 C 24,4 C 18,9 C 68 % 1020,0 hPa 0,0 l/m 2 min 0 min 784 W/m 9,7 km/h (2 Bft) 100,00 %
23.07.2022 11:44 21,9 C 24,4 C 18,9 C 67 % 1020,0 hPa 0,0 l/m 2 min 0 min 793 W/m 6,4 km/h (2 Bft) 97,87 %
23.07.2022 11:46 21,8 C 23,9 C 18,9 C 67 % 1020,0 hPa 0,0 l/m 2 min 0 min 787 W/m 6,4 km/h (2 Bft) 100,00 %
23.07.2022 11:48 21,8 C 25,0 C 18,9 C 68 % 1020,0 hPa 0,0 l/m 2 min 0 min 801 W/m 9,7 km/h (2 Bft) 100,00 %
23.07.2022 11:50 21,9 C 25,0 C 19,4 C 68 % 1020,0 hPa 0,0 l/m 2 min 0 min 804 W/m 12,9 km/h (3 Bft) 97,87 %
23.07.2022 11:52 22,1 C 25,0 C 19,4 C 68 % 1020,0 hPa 0,0 l/m 2 min 0 min 811 W/m 19,3 km/h (3 Bft) 100,00 %
23.07.2022 11:54 22,1 C 25,0 C 19,4 C 68 % 1019,9 hPa 0,0 l/m 2 min 0 min 815 W/m 16,1 km/h (3 Bft) 100,00 %
23.07.2022 11:56 22,2 C 25,0 C 19,4 C 66 % 1020,0 hPa 0,0 l/m 2 min 0 min 817 W/m 9,7 km/h (2 Bft) 100,00 %
23.07.2022 11:58 22,3 C 25,6 C 19,4 C 65 % 1020,0 hPa 0,0 l/m 2 min 0 min 827 W/m 9,7 km/h (2 Bft) 100,00 %
23.07.2022 12:00 22,3 C 25,0 C 19,4 C 66 % 1020,0 hPa 0,0 l/m 2 min 0 min 829 W/m 16,1 km/h (3 Bft) 97,83 %
23.07.2022 12:02 22,4 C 25,6 C 19,4 C 66 % 1020,0 hPa 0,0 l/m 2 min 0 min 823 W/m 6,4 km/h (2 Bft) 97,87 %
23.07.2022 12:04 22,4 C 25,0 C 18,9 C 66 % 1020,0 hPa 0,0 l/m 2 min 0 min 828 W/m 9,7 km/h (2 Bft) 95,74 %
23.07.2022 12:08 22,6 C 25,6 C 19,4 C 66 % 1020,0 hPa 0,0 l/m 4 min 0 min 827 W/m 6,4 km/h (2 Bft) 97,65 %
23.07.2022 12:10 22,7 C 26,1 C 19,4 C 66 % 1019,9 hPa 0,0 l/m 2 min 0 min 849 W/m 9,7 km/h (2 Bft) 97,87 %
23.07.2022 12:12 22,8 C 26,1 C 20,0 C 65 % 1019,9 hPa 0,0 l/m 2 min 0 min 809 W/m 3,2 km/h (1 Bft) 97,87 %
23.07.2022 12:14 22,9 C 26,1 C 20,0 C 65 % 1019,9 hPa 0,0 l/m 2 min 0 min 813 W/m 12,9 km/h (3 Bft) 97,83 %
23.07.2022 12:16 22,9 C 26,1 C 20,0 C 64 % 1019,9 hPa 0,0 l/m 2 min 0 min 831 W/m 9,7 km/h (2 Bft) 93,62 %
23.07.2022 12:18 23,0 C 26,1 C 20,6 C 64 % 1019,9 hPa 0,0 l/m 2 min 0 min 832 W/m 6,4 km/h (2 Bft) 97,87 %
23.07.2022 12:20 23,0 C 26,1 C 21,7 C 64 % 1019,9 hPa 0,0 l/m 2 min 0 min 834 W/m 12,9 km/h (3 Bft) 97,87 %
23.07.2022 12:22 23,1 C 26,1 C 22,8 C 65 % 1019,8 hPa 0,0 l/m 2 min 0 min 829 W/m 9,7 km/h (2 Bft) 97,87 %
23.07.2022 12:24 23,2 C 26,1 C 23,3 C 64 % 1019,9 hPa 0,0 l/m 2 min 0 min 847 W/m 12,9 km/h (3 Bft) 97,87 %
23.07.2022 12:26 23,2 C 25,6 C 23,9 C 62 % 1019,9 hPa 0,0 l/m 2 min 0 min 835 W/m 12,9 km/h (3 Bft) 97,83 %
23.07.2022 12:28 23,1 C 25,6 C 25,6 C 63 % 1019,8 hPa 0,0 l/m 2 min 0 min 862 W/m 6,4 km/h (2 Bft) 95,74 %
23.07.2022 12:30 23,1 C 25,6 C 26,1 C 63 % 1019,7 hPa 0,0 l/m 2 min 0 min 861 W/m 12,9 km/h (3 Bft) 97,87 %
23.07.2022 12:32 23,2 C 25,6 C 26,1 C 64 % 1019,8 hPa 0,0 l/m 2 min 0 min 850 W/m 12,9 km/h (3 Bft) 97,87 %
23.07.2022 12:34 23,3 C 26,1 C 26,1 C 64 % 1019,8 hPa 0,0 l/m 2 min 0 min 854 W/m 6,4 km/h (2 Bft) 97,87 %
23.07.2022 12:36 23,5 C 26,7 C 25,6 C 64 % 1019,8 hPa 0,0 l/m 2 min 0 min 857 W/m 9,7 km/h (2 Bft) 93,10 %
23.07.2022 12:38 23,6 C 26,1 C 25,6 C 62 % 1019,8 hPa 0,0 l/m 2 min 0 min 837 W/m 6,4 km/h (2 Bft) 100,00 %
23.07.2022 12:40 23,6 C 26,1 C 26,1 C 61 % 1019,8 hPa 0,0 l/m 2 min 0 min 813 W/m 9,7 km/h (2 Bft) 95,74 %
23.07.2022 12:42 23,7 C 25,6 C 25,6 C 61 % 1019,8 hPa 0,0 l/m 2 min 0 min 847 W/m 12,9 km/h (3 Bft) 97,87 %
23.07.2022 12:44 23,7 C 26,1 C 26,1 C 62 % 1019,8 hPa 0,0 l/m 2 min 0 min 839 W/m 3,2 km/h (1 Bft) 97,87 %
23.07.2022 12:46 23,7 C 25,6 C 25,6 C 61 % 1019,8 hPa 0,0 l/m 2 min 0 min 833 W/m 6,4 km/h (2 Bft) 95,74 %
23.07.2022 12:48 23,7 C 25,6 C 25,6 C 61 % 1019,8 hPa 0,0 l/m 2 min 0 min 865 W/m 12,9 km/h (3 Bft) 95,74 %
23.07.2022 12:50 23,7 C 25,0 C 25,6 C 61 % 1019,8 hPa 0,0 l/m 2 min 0 min 796 W/m 12,9 km/h (3 Bft) 97,83 %
23.07.2022 12:52 23,6 C 25,0 C 25,0 C 61 % 1019,8 hPa 0,0 l/m 2 min 0 min 749 W/m 9,7 km/h (2 Bft) 95,74 %
23.07.2022 12:54 23,6 C 25,0 C 24,4 C 59 % 1019,7 hPa 0,0 l/m 2 min 0 min 791 W/m 3,2 km/h (1 Bft) 95,74 %
23.07.2022 12:56 23,7 C 25,6 C 23,9 C 61 % 1019,7 hPa 0,0 l/m 2 min 0 min 787 W/m 6,4 km/h (2 Bft) 95,74 %
23.07.2022 12:58 23,7 C 26,1 C 22,8 C 61 % 1019,7 hPa 0,0 l/m 2 min 0 min 878 W/m 12,9 km/h (3 Bft) 95,74 %
23.07.2022 13:00 23,8 C 26,1 C 22,8 C 61 % 1019,8 hPa 0,0 l/m 2 min 0 min 870 W/m 12,9 km/h (3 Bft) 95,74 %
23.07.2022 13:02 23,9 C 26,1 C 22,2 C 60 % 1019,7 hPa 0,0 l/m 2 min 0 min 720 W/m 6,4 km/h (2 Bft) 95,65 %
23.07.2022 13:04 23,9 C 26,1 C 21,7 C 61 % 1019,7 hPa 0,0 l/m 2 min 0 min 808 W/m 12,9 km/h (3 Bft) 91,49 %
23.07.2022 13:06 24,1 C 25,6 C 21,7 C 61 % 1019,8 hPa 0,0 l/m 2 min 0 min 721 W/m 12,9 km/h (3 Bft) 96,61 %
23.07.2022 13:08 24,1 C 25,6 C 21,1 C 61 % 1019,7 hPa 0,0 l/m 2 min 0 min 671 W/m 12,9 km/h (3 Bft) 97,14 %
23.07.2022 13:10 24,1 C 25,6 C 21,1 C 60 % 1019,7 hPa 0,0 l/m 2 min 0 min 800 W/m 12,9 km/h (3 Bft) 97,87 %
23.07.2022 13:12 24,1 C 25,6 C 20,6 C 60 % 1019,7 hPa 0,0 l/m 2 min 0 min 905 W/m 12,9 km/h (3 Bft) 97,87 %
23.07.2022 13:14 24,2 C 26,1 C 20,6 C 60 % 1019,8 hPa 0,0 l/m 2 min 0 min 912 W/m 12,9 km/h (3 Bft) 100,00 %
23.07.2022 13:16 24,2 C 25,6 C 20,6 C 60 % 1019,7 hPa 0,0 l/m 2 min 0 min 902 W/m 9,7 km/h (2 Bft) 95,74 %
23.07.2022 13:18 24,3 C 25,6 C 20,6 C 60 % 1019,8 hPa 0,0 l/m 2 min 0 min 900 W/m 9,7 km/h (2 Bft) 93,62 %
23.07.2022 13:20 24,2 C 25,6 C 20,0 C 60 % 1019,8 hPa 0,0 l/m 2 min 0 min 891 W/m 12,9 km/h (3 Bft) 93,62 %
23.07.2022 13:22 24,3 C 25,6 C 20,0 C 61 % 1019,8 hPa 0,0 l/m 2 min 0 min 889 W/m 6,4 km/h (2 Bft) 95,74 %
23.07.2022 13:24 24,3 C 25,6 C 20,0 C 60 % 1019,8 hPa 0,0 l/m 2 min 0 min 882 W/m 9,7 km/h (2 Bft) 100,00 %
23.07.2022 13:26 24,3 C 25,6 C 20,0 C 59 % 1019,9 hPa 0,0 l/m 2 min 0 min 895 W/m 12,9 km/h (3 Bft) 97,83 %
23.07.2022 13:28 24,3 C 25,6 C 20,0 C 58 % 1019,8 hPa 0,0 l/m 2 min 0 min 895 W/m 6,4 km/h (2 Bft) 97,87 %
23.07.2022 13:30 24,3 C 25,6 C 20,0 C 60 % 1019,8 hPa 0,0 l/m 2 min 0 min 896 W/m 12,9 km/h (3 Bft) 97,87 %
23.07.2022 13:32 24,4 C 26,1 C 20,0 C 60 % 1019,9 hPa 0,0 l/m 2 min 0 min 900 W/m 16,1 km/h (3 Bft) 97,87 %
23.07.2022 13:34 24,4 C 26,1 C 20,0 C 58 % 1019,8 hPa 0,0 l/m 2 min 0 min 899 W/m 16,1 km/h (3 Bft) 95,74 %
23.07.2022 13:36 24,5 C 26,7 C 20,0 C 58 % 1019,8 hPa 0,0 l/m 2 min 0 min 900 W/m 6,4 km/h (2 Bft) 98,28 %
23.07.2022 13:38 24,6 C 26,7 C 20,0 C 58 % 1019,8 hPa 0,0 l/m 2 min 0 min 901 W/m 12,9 km/h (3 Bft) 97,14 %
23.07.2022 13:40 24,6 C 26,7 C 20,6 C 58 % 1019,8 hPa 0,0 l/m 2 min 0 min 897 W/m 16,1 km/h (3 Bft) 95,74 %
23.07.2022 13:42 24,7 C 26,7 C 20,6 C 57 % 1019,8 hPa 0,0 l/m 2 min 0 min 895 W/m 16,1 km/h (3 Bft) 97,87 %
23.07.2022 13:44 24,7 C 26,7 C 21,1 C 57 % 1019,8 hPa 0,0 l/m 2 min 0 min 896 W/m 16,1 km/h (3 Bft) 97,87 %
23.07.2022 13:46 24,8 C 26,7 C 21,7 C 56 % 1019,8 hPa 0,0 l/m 2 min 0 min 899 W/m 19,3 km/h (3 Bft) 97,87 %
23.07.2022 13:48 24,8 C 27,2 C 22,8 C 56 % 1019,8 hPa 0,0 l/m 2 min 0 min 899 W/m 6,4 km/h (2 Bft) 97,83 %
23.07.2022 13:50 24,7 C 27,2 C 23,3 C 55 % 1019,7 hPa 0,0 l/m 2 min 0 min 899 W/m 6,4 km/h (2 Bft) 97,87 %
23.07.2022 13:52 24,7 C 27,2 C 23,9 C 57 % 1019,7 hPa 0,0 l/m 2 min 0 min 900 W/m 19,3 km/h (3 Bft) 95,74 %
23.07.2022 13:54 24,8 C 27,2 C 25,0 C 56 % 1019,8 hPa 0,0 l/m 2 min 0 min 899 W/m 12,9 km/h (3 Bft) 97,87 %
23.07.2022 13:56 24,8 C 27,2 C 25,0 C 56 % 1019,8 hPa 0,0 l/m 2 min 0 min 898 W/m 12,9 km/h (3 Bft) 97,87 %
23.07.2022 13:58 24,7 C 27,2 C 25,0 C 56 % 1019,8 hPa 0,0 l/m 2 min 0 min 892 W/m 6,4 km/h (2 Bft) 97,87 %
23.07.2022 14:00 24,7 C 27,8 C 24,4 C 57 % 1019,7 hPa 0,0 l/m 2 min 0 min 895 W/m 9,7 km/h (2 Bft) 97,87 %
23.07.2022 14:02 24,7 C 27,2 C 23,9 C 57 % 1019,7 hPa 0,0 l/m 2 min 0 min 898 W/m 16,1 km/h (3 Bft) 100,00 %
23.07.2022 14:04 24,6 C 27,2 C 23,3 C 56 % 1019,7 hPa 0,0 l/m 2 min 0 min 898 W/m 16,1 km/h (3 Bft) 100,00 %
23.07.2022 14:06 24,6 C 27,2 C 22,2 C 57 % 1019,7 hPa 0,0 l/m 2 min 0 min 896 W/m 12,9 km/h (3 Bft) 100,00 %
23.07.2022 14:08 24,7 C 27,8 C 22,2 C 57 % 1019,6 hPa 0,0 l/m 2 min 0 min 896 W/m 9,7 km/h (2 Bft) 100,00 %
23.07.2022 14:10 24,8 C 28,3 C 21,1 C 57 % 1019,7 hPa 0,0 l/m 2 min 0 min 897 W/m 12,9 km/h (3 Bft) 100,00 %
23.07.2022 14:12 24,8 C 27,8 C 21,1 C 56 % 1019,6 hPa 0,0 l/m 2 min 0 min 896 W/m 16,1 km/h (3 Bft) 100,00 %
23.07.2022 14:14 24,8 C 27,2 C 20,6 C 57 % 1019,7 hPa 0,0 l/m 2 min 0 min 897 W/m 12,9 km/h (3 Bft) 100,00 %
23.07.2022 14:16 24,8 C 27,2 C 20,6 C 58 % 1019,7 hPa 0,0 l/m 2 min 0 min 897 W/m 12,9 km/h (3 Bft) 100,00 %
23.07.2022 14:18 24,9 C 27,8 C 21,1 C 58 % 1019,7 hPa 0,0 l/m 2 min 0 min 897 W/m 12,9 km/h (3 Bft) 97,87 %
23.07.2022 14:20 24,9 C 27,8 C 20,6 C 57 % 1019,7 hPa 0,0 l/m 2 min 0 min 895 W/m 9,7 km/h (2 Bft) 100,00 %
23.07.2022 14:22 24,9 C 27,8 C 20,6 C 57 % 1019,7 hPa 0,0 l/m 2 min 0 min 893 W/m 9,7 km/h (2 Bft) 100,00 %
23.07.2022 14:24 24,9 C 27,8 C 20,6 C 58 % 1019,7 hPa 0,0 l/m 2 min 0 min 895 W/m 6,4 km/h (2 Bft) 100,00 %
23.07.2022 14:26 25,1 C 28,3 C 20,6 C 57 % 1019,7 hPa 0,0 l/m 2 min 0 min 892 W/m 9,7 km/h (2 Bft) 100,00 %
23.07.2022 14:28 25,1 C 28,3 C 20,6 C 56 % 1019,7 hPa 0,0 l/m 2 min 0 min 892 W/m 16,1 km/h (3 Bft) 100,00 %
23.07.2022 14:30 25,0 C 28,3 C 20,6 C 59 % 1019,7 hPa 0,0 l/m 2 min 0 min 886 W/m 6,4 km/h (2 Bft) 100,00 %
23.07.2022 14:32 25,1 C 29,4 C 20,6 C 59 % 1019,7 hPa 0,0 l/m 2 min 0 min 887 W/m 6,4 km/h (2 Bft) 100,00 %
23.07.2022 14:34 25,2 C 29,4 C 20,6 C 58 % 1019,7 hPa 0,0 l/m 2 min 0 min 886 W/m 12,9 km/h (3 Bft) 97,87 %
23.07.2022 14:36 25,2 C 28,9 C 20,6 C 58 % 1019,7 hPa 0,0 l/m 2 min 0 min 894 W/m 12,9 km/h (3 Bft) 100,00 %
23.07.2022 14:38 25,3 C 28,9 C 20,6 C 58 % 1019,8 hPa 0,0 l/m 2 min 0 min 892 W/m 22,5 km/h (4 Bft) 100,00 %
23.07.2022 14:40 25,4 C 28,9 C 20,6 C 58 % 1019,8 hPa 0,0 l/m 2 min 0 min 891 W/m 19,3 km/h (3 Bft) 97,87 %
23.07.2022 14:42 25,4 C 28,9 C 20,6 C 58 % 1019,8 hPa 0,0 l/m 2 min 0 min 890 W/m 12,9 km/h (3 Bft) 100,00 %
23.07.2022 14:44 25,4 C 28,3 C 20,6 C 57 % 1019,7 hPa 0,0 l/m 2 min 0 min 877 W/m 6,4 km/h (2 Bft) 100,00 %
23.07.2022 14:46 25,4 C 28,3 C 20,6 C 57 % 1019,7 hPa 0,0 l/m 2 min 0 min 872 W/m 9,7 km/h (2 Bft) 97,83 %
23.07.2022 14:48 25,4 C 28,3 C 20,6 C 58 % 1019,7 hPa 0,0 l/m 2 min 0 min 881 W/m 12,9 km/h (3 Bft) 97,87 %
23.07.2022 14:50 25,5 C 28,9 C 20,6 C 58 % 1019,7 hPa 0,0 l/m 2 min 0 min 885 W/m 19,3 km/h (3 Bft) 97,87 %
23.07.2022 14:52 25,6 C 28,3 C 20,6 C 56 % 1019,8 hPa 0,0 l/m 2 min 0 min 889 W/m 22,5 km/h (4 Bft) 97,87 %
23.07.2022 14:54 25,4 C 28,3 C 20,6 C 56 % 1019,8 hPa 0,0 l/m 2 min 0 min 913 W/m 12,9 km/h (3 Bft) 97,87 %
23.07.2022 14:56 25,4 C 28,3 C 20,6 C 58 % 1019,8 hPa 0,0 l/m 2 min 0 min 901 W/m 12,9 km/h (3 Bft) 95,74 %
23.07.2022 14:58 25,3 C 28,3 C 20,6 C 58 % 1019,8 hPa 0,0 l/m 2 min 0 min 890 W/m 16,1 km/h (3 Bft) 97,83 %
23.07.2022 15:00 25,3 C 28,9 C 20,6 C 58 % 1019,8 hPa 0,0 l/m 2 min 0 min 893 W/m 12,9 km/h (3 Bft) 97,87 %
23.07.2022 15:02 25,4 C 28,9 C 20,6 C 58 % 1019,8 hPa 0,0 l/m 2 min 0 min 890 W/m 16,1 km/h (3 Bft) 97,87 %
23.07.2022 15:04 25,4 C 28,3 C 20,6 C 57 % 1019,8 hPa 0,0 l/m 2 min 0 min 891 W/m 16,1 km/h (3 Bft) 97,87 %
23.07.2022 15:06 25,4 C 28,3 C 20,6 C 57 % 1019,8 hPa 0,0 l/m 2 min 0 min 888 W/m 9,7 km/h (2 Bft) 97,87 %
23.07.2022 15:08 25,5 C 28,3 C 20,6 C 58 % 1019,8 hPa 0,0 l/m 2 min 0 min 887 W/m 16,1 km/h (3 Bft) 97,87 %
23.07.2022 15:10 25,6 C 28,3 C 21,1 C 58 % 1019,8 hPa 0,0 l/m 2 min 0 min 883 W/m 9,7 km/h (2 Bft) 97,83 %
23.07.2022 15:12 25,7 C 28,9 C 21,1 C 57 % 1019,8 hPa 0,0 l/m 2 min 0 min 878 W/m 6,4 km/h (2 Bft) 97,87 %
23.07.2022 15:14 25,8 C 28,9 C 21,1 C 56 % 1019,8 hPa 0,0 l/m 2 min 0 min 872 W/m 6,4 km/h (2 Bft) 95,74 %
23.07.2022 15:16 25,9 C 28,9 C 21,1 C 55 % 1019,8 hPa 0,0 l/m 2 min 0 min 877 W/m 12,9 km/h (3 Bft) 97,87 %
23.07.2022 15:18 25,9 C 28,9 C 21,1 C 55 % 1019,8 hPa 0,0 l/m 2 min 0 min 882 W/m 6,4 km/h (2 Bft) 93,62 %
23.07.2022 15:20 26,0 C 29,4 C 21,1 C 56 % 1019,8 hPa 0,0 l/m 2 min 0 min 870 W/m 6,4 km/h (2 Bft) 95,74 %
23.07.2022 15:22 26,0 C 27,8 C 21,1 C 56 % 1019,8 hPa 0,0 l/m 2 min 0 min 537 W/m 12,9 km/h (3 Bft) 97,83 %
23.07.2022 15:24 25,8 C 27,2 C 20,6 C 57 % 1019,7 hPa 0,0 l/m 0 min 0 min 195 W/m 6,4 km/h (2 Bft) 97,87 %
23.07.2022 15:26 25,7 C 27,2 C 20,6 C 58 % 1019,7 hPa 0,0 l/m 0 min 0 min 366 W/m 12,9 km/h (3 Bft) 97,87 %
23.07.2022 15:28 25,6 C 26,1 C 20,6 C 58 % 1019,7 hPa 0,0 l/m 2 min 0 min 489 W/m 6,4 km/h (2 Bft) 95,74 %
23.07.2022 15:30 25,4 C 26,7 C 20,6 C 58 % 1019,7 hPa 0,0 l/m 0 min 0 min 146 W/m 6,4 km/h (2 Bft) 97,87 %
23.07.2022 15:32 25,4 C 26,7 C 20,6 C 58 % 1019,7 hPa 0,0 l/m 0 min 0 min 151 W/m 6,4 km/h (2 Bft) 97,87 %
23.07.2022 15:34 25,4 C 27,2 C 20,6 C 57 % 1019,6 hPa 0,0 l/m 2 min 0 min 804 W/m 9,7 km/h (2 Bft) 97,83 %
23.07.2022 15:36 25,5 C 27,8 C 20,6 C 56 % 1019,6 hPa 0,0 l/m 2 min 0 min 851 W/m 6,4 km/h (2 Bft) 97,87 %
23.07.2022 15:38 25,5 C 28,3 C 20,6 C 57 % 1019,6 hPa 0,0 l/m 2 min 0 min 845 W/m 6,4 km/h (2 Bft) 97,87 %
23.07.2022 15:40 25,6 C 28,9 C 20,6 C 58 % 1019,6 hPa 0,0 l/m 2 min 0 min 835 W/m 9,7 km/h (2 Bft) 97,87 %
23.07.2022 15:42 25,7 C 28,9 C 21,1 C 58 % 1019,5 hPa 0,0 l/m 2 min 0 min 825 W/m 6,4 km/h (2 Bft) 97,87 %
23.07.2022 15:44 25,8 C 30,0 C 21,1 C 58 % 1019,5 hPa 0,0 l/m 2 min 0 min 822 W/m 6,4 km/h (2 Bft) 97,87 %
23.07.2022 15:46 25,9 C 29,4 C 21,1 C 55 % 1019,5 hPa 0,0 l/m 2 min 0 min 816 W/m 9,7 km/h (2 Bft) 97,83 %
23.07.2022 15:48 26,0 C 29,4 C 21,1 C 56 % 1019,5 hPa 0,0 l/m 2 min 0 min 818 W/m 12,9 km/h (3 Bft) 97,87 %
23.07.2022 15:50 26,1 C 29,4 C 21,1 C 55 % 1019,5 hPa 0,0 l/m 2 min 0 min 789 W/m 6,4 km/h (2 Bft) 93,62 %
23.07.2022 15:52 26,1 C 29,4 C 21,1 C 54 % 1019,4 hPa 0,0 l/m 2 min 0 min 779 W/m 12,9 km/h (3 Bft) 95,74 %
23.07.2022 15:54 26,2 C 30,0 C 21,1 C 56 % 1019,5 hPa 0,0 l/m 2 min 0 min 689 W/m 9,7 km/h (2 Bft) 95,74 %
23.07.2022 15:56 26,2 C 29,4 C 21,1 C 56 % 1019,5 hPa 0,0 l/m 2 min 0 min 788 W/m 19,3 km/h (3 Bft) 95,74 %
23.07.2022 15:58 26,3 C 29,4 C 21,1 C 55 % 1019,5 hPa 0,0 l/m 2 min 0 min 823 W/m 9,7 km/h (2 Bft) 95,74 %
23.07.2022 16:00 26,3 C 30,0 C 21,1 C 56 % 1019,5 hPa 0,0 l/m 2 min 0 min 806 W/m 3,2 km/h (1 Bft) 93,48 %
23.07.2022 16:02 26,2 C 29,4 C 21,1 C 56 % 1019,5 hPa 0,0 l/m 2 min 0 min 776 W/m 6,4 km/h (2 Bft) 93,62 %
23.07.2022 16:04 26,2 C 30,0 C 21,1 C 57 % 1019,5 hPa 0,0 l/m 2 min 0 min 728 W/m 6,4 km/h (2 Bft) 95,74 %
23.07.2022 16:06 26,3 C 30,6 C 21,1 C 56 % 1019,5 hPa 0,0 l/m 2 min 0 min 790 W/m 6,4 km/h (2 Bft) 93,62 %
23.07.2022 16:08 26,3 C 30,6 C 21,1 C 56 % 1019,5 hPa 0,0 l/m 2 min 0 min 798 W/m 9,7 km/h (2 Bft) 97,87 %
23.07.2022 16:10 26,3 C 31,1 C 21,1 C 55 % 1019,5 hPa 0,0 l/m 2 min 0 min 788 W/m 12,9 km/h (3 Bft) 97,83 %
23.07.2022 16:12 26,4 C 31,7 C 21,7 C 56 % 1019,5 hPa 0,0 l/m 2 min 0 min 772 W/m 6,4 km/h (2 Bft) 97,87 %
23.07.2022 16:14 26,5 C 31,7 C 21,7 C 56 % 1019,5 hPa 0,0 l/m 2 min 0 min 754 W/m 9,7 km/h (2 Bft) 97,87 %
23.07.2022 16:16 26,4 C 31,1 C 21,7 C 57 % 1019,4 hPa 0,0 l/m 2 min 0 min 752 W/m 12,9 km/h (3 Bft) 97,87 %
23.07.2022 16:18 26,4 C 31,7 C 21,7 C 56 % 1019,4 hPa 0,0 l/m 2 min 0 min 757 W/m 9,7 km/h (2 Bft) 95,74 %
23.07.2022 16:20 26,5 C 31,1 C 21,7 C 56 % 1019,5 hPa 0,0 l/m 2 min 0 min 738 W/m 16,1 km/h (3 Bft) 97,87 %
23.07.2022 16:22 26,4 C 31,1 C 21,7 C 57 % 1019,4 hPa 0,0 l/m 2 min 0 min 742 W/m 9,7 km/h (2 Bft) 97,83 %
23.07.2022 16:24 26,4 C 31,1 C 21,7 C 56 % 1019,4 hPa 0,0 l/m 2 min 0 min 730 W/m 9,7 km/h (2 Bft) 95,74 %
23.07.2022 16:26 26,4 C 31,1 C 21,7 C 55 % 1019,4 hPa 0,0 l/m 2 min 0 min 724 W/m 16,1 km/h (3 Bft) 97,87 %
23.07.2022 16:28 26,4 C 31,1 C 21,7 C 55 % 1019,4 hPa 0,0 l/m 2 min 0 min 702 W/m 6,4 km/h (2 Bft) 97,87 %
23.07.2022 16:30 26,5 C 31,1 C 21,7 C 55 % 1019,4 hPa 0,0 l/m 2 min 0 min 673 W/m 6,4 km/h (2 Bft) 97,87 %
23.07.2022 16:32 26,6 C 31,7 C 21,7 C 56 % 1019,4 hPa 0,0 l/m 2 min 0 min 683 W/m 9,7 km/h (2 Bft) 95,74 %
23.07.2022 16:34 26,6 C 31,1 C 21,7 C 54 % 1019,4 hPa 0,0 l/m 2 min 0 min 664 W/m 12,9 km/h (3 Bft) 100,00 %
23.07.2022 16:36 26,6 C 31,1 C 21,7 C 54 % 1019,3 hPa 0,0 l/m 2 min 0 min 610 W/m 6,4 km/h (2 Bft) 100,00 %
23.07.2022 16:38 26,5 C 30,6 C 21,7 C 55 % 1019,3 hPa 0,0 l/m 2 min 0 min 621 W/m 16,1 km/h (3 Bft) 100,00 %
23.07.2022 16:40 26,6 C 31,1 C 21,7 C 56 % 1019,3 hPa 0,0 l/m 2 min 0 min 703 W/m 12,9 km/h (3 Bft) 95,74 %
23.07.2022 16:42 26,6 C 31,1 C 21,7 C 56 % 1019,3 hPa 0,0 l/m 2 min 0 min 687 W/m 9,7 km/h (2 Bft) 97,87 %
23.07.2022 16:44 26,6 C 32,2 C 22,2 C 57 % 1019,3 hPa 0,0 l/m 2 min 0 min 681 W/m 9,7 km/h (2 Bft) 97,87 %
23.07.2022 16:46 26,7 C 32,2 C 22,2 C 55 % 1019,3 hPa 0,0 l/m 2 min 0 min 658 W/m 9,7 km/h (2 Bft) 95,65 %
23.07.2022 16:48 26,7 C 32,8 C 22,2 C 56 % 1019,3 hPa 0,0 l/m 2 min 0 min 686 W/m 9,7 km/h (2 Bft) 97,87 %
23.07.2022 16:50 26,7 C 32,2 C 22,2 C 55 % 1019,3 hPa 0,0 l/m 2 min 0 min 699 W/m 16,1 km/h (3 Bft) 95,74 %
23.07.2022 16:52 26,8 C 32,8 C 22,2 C 55 % 1019,3 hPa 0,0 l/m 2 min 0 min 698 W/m 9,7 km/h (2 Bft) 93,62 %
23.07.2022 16:54 26,7 C 32,2 C 22,2 C 54 % 1019,3 hPa 0,0 l/m 2 min 0 min 693 W/m 12,9 km/h (3 Bft) 95,74 %
23.07.2022 16:56 26,7 C 32,2 C 22,2 C 55 % 1019,3 hPa 0,0 l/m 2 min 0 min 683 W/m 6,4 km/h (2 Bft) 97,87 %
23.07.2022 16:58 26,7 C 32,8 C 22,2 C 56 % 1019,3 hPa 0,0 l/m 2 min 0 min 650 W/m 6,4 km/h (2 Bft) 95,65 %
23.07.2022 17:00 26,8 C 32,2 C 22,2 C 54 % 1019,3 hPa 0,0 l/m 2 min 0 min 622 W/m 9,7 km/h (2 Bft) 97,87 %
23.07.2022 17:02 26,8 C 32,2 C 22,8 C 55 % 1019,3 hPa 0,0 l/m 2 min 0 min 653 W/m 9,7 km/h (2 Bft) 97,87 %
23.07.2022 17:04 26,8 C 32,2 C 22,2 C 55 % 1019,4 hPa 0,0 l/m 2 min 0 min 654 W/m 12,9 km/h (3 Bft) 97,87 %
23.07.2022 17:06 26,7 C 31,7 C 22,2 C 54 % 1019,3 hPa 0,0 l/m 2 min 0 min 626 W/m 12,9 km/h (3 Bft) 97,87 %
23.07.2022 17:08 26,5 C 31,7 C 21,7 C 54 % 1019,3 hPa 0,0 l/m 2 min 0 min 629 W/m 12,9 km/h (3 Bft) 97,87 %
23.07.2022 17:10 26,5 C 31,7 C 21,7 C 54 % 1019,3 hPa 0,0 l/m 2 min 0 min 641 W/m 9,7 km/h (2 Bft) 100,00 %
23.07.2022 17:12 26,5 C 32,2 C 22,2 C 55 % 1019,3 hPa 0,0 l/m 2 min 0 min 622 W/m 9,7 km/h (2 Bft) 100,00 %
23.07.2022 17:14 26,5 C 32,2 C 22,2 C 55 % 1019,3 hPa 0,0 l/m 2 min 0 min 577 W/m 9,7 km/h (2 Bft) 100,00 %
23.07.2022 17:16 26,6 C 32,2 C 22,2 C 55 % 1019,3 hPa 0,0 l/m 2 min 0 min 552 W/m 12,9 km/h (3 Bft) 100,00 %
23.07.2022 17:18 26,6 C 32,2 C 22,2 C 56 % 1019,3 hPa 0,0 l/m 2 min 0 min 551 W/m 12,9 km/h (3 Bft) 100,00 %
23.07.2022 17:20 26,7 C 31,7 C 22,2 C 55 % 1019,3 hPa 0,0 l/m 2 min 0 min 546 W/m 6,4 km/h (2 Bft) 100,00 %
23.07.2022 17:22 26,6 C 31,1 C 22,2 C 54 % 1019,3 hPa 0,0 l/m 2 min 0 min 581 W/m 6,4 km/h (2 Bft) 100,00 %
23.07.2022 17:24 26,6 C 32,2 C 22,8 C 56 % 1019,3 hPa 0,0 l/m 2 min 0 min 617 W/m 9,7 km/h (2 Bft) 100,00 %
23.07.2022 17:26 26,7 C 32,2 C 22,8 C 55 % 1019,2 hPa 0,0 l/m 2 min 0 min 552 W/m 12,9 km/h (3 Bft) 100,00 %
23.07.2022 17:28 26,8 C 32,2 C 22,8 C 56 % 1019,2 hPa 0,0 l/m 2 min 0 min 528 W/m 6,4 km/h (2 Bft) 100,00 %
23.07.2022 17:30 26,9 C 32,2 C 22,8 C 54 % 1019,3 hPa 0,0 l/m 2 min 0 min 521 W/m 6,4 km/h (2 Bft) 100,00 %
23.07.2022 17:32 26,9 C 31,7 C 22,8 C 54 % 1019,3 hPa 0,0 l/m 2 min 0 min 530 W/m 6,4 km/h (2 Bft) 100,00 %
23.07.2022 17:34 26,9 C 31,7 C 22,8 C 55 % 1019,3 hPa 0,0 l/m 2 min 0 min 610 W/m 9,7 km/h (2 Bft) 100,00 %
23.07.2022 17:36 27,0 C 31,7 C 22,8 C 54 % 1019,3 hPa 0,0 l/m 2 min 0 min 584 W/m 12,9 km/h (3 Bft) 100,00 %
23.07.2022 17:38 27,0 C 31,7 C 22,8 C 53 % 1019,3 hPa 0,0 l/m 2 min 0 min 560 W/m 9,7 km/h (2 Bft) 100,00 %
23.07.2022 17:40 27,0 C 31,7 C 22,8 C 54 % 1019,3 hPa 0,0 l/m 2 min 0 min 537 W/m 9,7 km/h (2 Bft) 97,87 %
23.07.2022 17:42 27,0 C 31,1 C 22,8 C 52 % 1019,3 hPa 0,0 l/m 2 min 0 min 601 W/m 9,7 km/h (2 Bft) 100,00 %
23.07.2022 17:44 26,9 C 30,6 C 22,2 C 52 % 1019,3 hPa 0,0 l/m 2 min 0 min 503 W/m 6,4 km/h (2 Bft) 100,00 %
23.07.2022 17:46 26,8 C 29,4 C 22,2 C 53 % 1019,3 hPa 0,0 l/m 2 min 0 min 408 W/m 12,9 km/h (3 Bft) 100,00 %
23.07.2022 17:48 26,8 C 28,9 C 22,2 C 54 % 1019,3 hPa 0,0 l/m 0 min 0 min 243 W/m 9,7 km/h (2 Bft) 100,00 %
23.07.2022 17:50 26,8 C 30,0 C 22,2 C 54 % 1019,3 hPa 0,0 l/m 2 min 0 min 410 W/m 12,9 km/h (3 Bft) 100,00 %
23.07.2022 17:52 26,8 C 30,0 C 22,8 C 53 % 1019,4 hPa 0,0 l/m 2 min 0 min 521 W/m 19,3 km/h (3 Bft) 100,00 %
23.07.2022 17:54 26,8 C 30,6 C 22,8 C 54 % 1019,3 hPa 0,0 l/m 2 min 0 min 472 W/m 16,1 km/h (3 Bft) 100,00 %
23.07.2022 17:56 26,8 C 30,0 C 22,8 C 53 % 1019,3 hPa 0,0 l/m 2 min 0 min 439 W/m 19,3 km/h (3 Bft) 97,87 %
23.07.2022 17:58 26,8 C 30,6 C 22,8 C 53 % 1019,3 hPa 0,0 l/m 2 min 0 min 495 W/m 16,1 km/h (3 Bft) 100,00 %
23.07.2022 18:00 26,8 C 30,6 C 22,8 C 53 % 1019,2 hPa 0,0 l/m 2 min 0 min 496 W/m 19,3 km/h (3 Bft) 97,83 %
23.07.2022 18:02 26,8 C 30,0 C 22,8 C 53 % 1019,3 hPa 0,0 l/m 2 min 0 min 486 W/m 16,1 km/h (3 Bft) 100,00 %
23.07.2022 18:04 26,8 C 30,6 C 22,8 C 52 % 1019,3 hPa 0,0 l/m 2 min 0 min 490 W/m 16,1 km/h (3 Bft) 100,00 %
23.07.2022 18:08 26,6 C 30,0 C 22,2 C 52 % 1019,2 hPa 0,0 l/m 4 min 0 min 489 W/m 12,9 km/h (3 Bft) 98,94 %
23.07.2022 18:10 26,5 C 30,0 C 22,2 C 54 % 1019,2 hPa 0,0 l/m 2 min 0 min 461 W/m 9,7 km/h (2 Bft) 97,87 %
23.07.2022 18:12 26,5 C 30,0 C 22,2 C 53 % 1019,2 hPa 0,0 l/m 2 min 0 min 493 W/m 9,7 km/h (2 Bft) 100,00 %
23.07.2022 18:14 26,5 C 30,6 C 22,8 C 54 % 1019,2 hPa 0,0 l/m 2 min 0 min 458 W/m 6,4 km/h (2 Bft) 100,00 %
23.07.2022 18:16 26,5 C 30,0 C 22,2 C 55 % 1019,2 hPa 0,0 l/m 2 min 0 min 381 W/m 6,4 km/h (2 Bft) 97,87 %
23.07.2022 18:18 26,6 C 30,0 C 22,2 C 54 % 1019,2 hPa 0,0 l/m 2 min 0 min 401 W/m 6,4 km/h (2 Bft) 97,87 %
23.07.2022 18:20 26,6 C 30,0 C 22,2 C 55 % 1019,2 hPa 0,0 l/m 2 min 0 min 418 W/m 16,1 km/h (3 Bft) 100,00 %
23.07.2022 18:22 26,6 C 30,0 C 22,2 C 54 % 1019,1 hPa 0,0 l/m 2 min 0 min 411 W/m 6,4 km/h (2 Bft) 97,87 %
23.07.2022 18:24 26,6 C 30,6 C 22,2 C 53 % 1019,1 hPa 0,0 l/m 2 min 0 min 406 W/m 9,7 km/h (2 Bft) 95,65 %
23.07.2022 18:26 26,6 C 30,0 C 22,2 C 52 % 1019,1 hPa 0,0 l/m 2 min 0 min 383 W/m 6,4 km/h (2 Bft) 89,36 %
23.07.2022 18:28 26,5 C 30,6 C 22,2 C 54 % 1019,1 hPa 0,0 l/m 2 min 0 min 388 W/m 3,2 km/h (1 Bft) 93,62 %
23.07.2022 18:30 26,6 C 30,6 C 22,2 C 54 % 1019,1 hPa 0,0 l/m 2 min 0 min 378 W/m 9,7 km/h (2 Bft) 95,74 %
23.07.2022 18:32 26,6 C 30,6 C 22,2 C 54 % 1019,1 hPa 0,0 l/m 2 min 0 min 367 W/m 9,7 km/h (2 Bft) 93,62 %
23.07.2022 18:34 26,6 C 30,0 C 22,2 C 54 % 1019,2 hPa 0,0 l/m 2 min 0 min 364 W/m 12,9 km/h (3 Bft) 93,62 %
23.07.2022 18:36 26,6 C 30,0 C 22,2 C 54 % 1019,1 hPa 0,0 l/m 2 min 0 min 337 W/m 9,7 km/h (2 Bft) 91,30 %
23.07.2022 18:38 26,6 C 29,4 C 22,2 C 54 % 1019,1 hPa 0,0 l/m 2 min 0 min 287 W/m 12,9 km/h (3 Bft) 92,45 %
23.07.2022 18:40 26,6 C 29,4 C 22,2 C 53 % 1019,1 hPa 0,0 l/m 2 min 0 min 317 W/m 6,4 km/h (2 Bft) 93,62 %
23.07.2022 18:42 26,6 C 29,4 C 22,2 C 54 % 1019,1 hPa 0,0 l/m 2 min 0 min 347 W/m 9,7 km/h (2 Bft) 93,62 %
23.07.2022 18:44 26,6 C 30,0 C 22,2 C 53 % 1019,1 hPa 0,0 l/m 2 min 0 min 327 W/m 3,2 km/h (1 Bft) 92,68 %
23.07.2022 18:46 26,6 C 29,4 C 21,7 C 54 % 1019,1 hPa 0,0 l/m 2 min 0 min 288 W/m 3,2 km/h (1 Bft) 91,49 %
23.07.2022 18:48 26,6 C 29,4 C 21,7 C 56 % 1019,1 hPa 0,0 l/m 2 min 0 min 298 W/m 6,4 km/h (2 Bft) 93,48 %
23.07.2022 18:50 26,7 C 30,0 C 21,7 C 57 % 1019,1 hPa 0,0 l/m 2 min 0 min 301 W/m 12,9 km/h (3 Bft) 95,74 %
23.07.2022 18:52 26,7 C 29,4 C 21,7 C 54 % 1019,1 hPa 0,0 l/m 2 min 0 min 293 W/m 12,9 km/h (3 Bft) 91,49 %
23.07.2022 18:54 26,7 C 30,0 C 21,7 C 55 % 1019,1 hPa 0,0 l/m 2 min 0 min 328 W/m 6,4 km/h (2 Bft) 93,62 %
23.07.2022 18:56 26,7 C 29,4 C 21,7 C 54 % 1019,1 hPa 0,0 l/m 2 min 0 min 282 W/m 12,9 km/h (3 Bft) 93,62 %
23.07.2022 18:58 26,7 C 29,4 C 21,7 C 54 % 1019,1 hPa 0,0 l/m 2 min 0 min 288 W/m 12,9 km/h (3 Bft) 93,62 %
23.07.2022 19:00 26,7 C 28,9 C 21,7 C 55 % 1019,1 hPa 0,0 l/m 2 min 0 min 273 W/m 12,9 km/h (3 Bft) 93,48 %
23.07.2022 19:02 26,6 C 29,4 C 21,7 C 56 % 1019,1 hPa 0,0 l/m 2 min 0 min 281 W/m 6,4 km/h (2 Bft) 91,49 %
23.07.2022 19:04 26,6 C 28,9 C 21,1 C 53 % 1019,1 hPa 0,0 l/m 2 min 0 min 291 W/m 6,4 km/h (2 Bft) 95,74 %
23.07.2022 19:06 26,6 C 29,4 C 21,1 C 56 % 1019,1 hPa 0,0 l/m 2 min 0 min 299 W/m 3,2 km/h (1 Bft) 96,61 %
23.07.2022 19:08 26,5 C 30,0 C 20,6 C 55 % 1019,1 hPa 0,0 l/m 2 min 0 min 279 W/m 6,4 km/h (2 Bft) 100,00 %
23.07.2022 19:10 26,4 C 30,0 C 20,6 C 56 % 1019,1 hPa 0,0 l/m 2 min 0 min 272 W/m 6,4 km/h (2 Bft) 97,87 %
23.07.2022 19:12 26,3 C 29,4 C 20,6 C 55 % 1019,1 hPa 0,0 l/m 2 min 0 min 294 W/m 6,4 km/h (2 Bft) 97,83 %
23.07.2022 19:14 26,3 C 30,0 C 20,6 C 57 % 1019,1 hPa 0,0 l/m 2 min 0 min 310 W/m 6,4 km/h (2 Bft) 91,49 %
23.07.2022 19:16 26,2 C 30,0 C 20,6 C 55 % 1019,1 hPa 0,0 l/m 2 min 0 min 323 W/m 6,4 km/h (2 Bft) 97,87 %
23.07.2022 19:18 26,2 C 30,0 C 20,6 C 56 % 1019,0 hPa 0,0 l/m 2 min 0 min 289 W/m 9,7 km/h (2 Bft) 97,87 %
23.07.2022 19:20 26,1 C 28,9 C 20,6 C 55 % 1019,1 hPa 0,0 l/m 2 min 0 min 266 W/m 12,9 km/h (3 Bft) 100,00 %
23.07.2022 19:22 26,2 C 28,9 C 20,6 C 55 % 1019,0 hPa 0,0 l/m 2 min 0 min 222 W/m 6,4 km/h (2 Bft) 97,87 %
23.07.2022 19:24 26,2 C 28,3 C 20,6 C 55 % 1019,0 hPa 0,0 l/m 2 min 0 min 257 W/m 6,4 km/h (2 Bft) 100,00 %
23.07.2022 19:26 26,2 C 27,2 C 20,6 C 56 % 1019,0 hPa 0,0 l/m 2 min 0 min 242 W/m 3,2 km/h (1 Bft) 100,00 %
23.07.2022 19:28 26,2 C 26,7 C 20,6 C 56 % 1019,0 hPa 0,0 l/m 2 min 0 min 253 W/m 9,7 km/h (2 Bft) 100,00 %
23.07.2022 19:30 26,2 C 26,1 C 20,6 C 56 % 1019,0 hPa 0,0 l/m 2 min 0 min 261 W/m 9,7 km/h (2 Bft) 100,00 %
23.07.2022 19:32 26,2 C 26,1 C 20,6 C 56 % 1019,0 hPa 0,0 l/m 2 min 0 min 257 W/m 9,7 km/h (2 Bft) 100,00 %
23.07.2022 19:34 26,1 C 26,1 C 20,6 C 56 % 1019,0 hPa 0,0 l/m 2 min 0 min 249 W/m 12,9 km/h (3 Bft) 100,00 %
23.07.2022 19:36 26,1 C 25,6 C 20,6 C 56 % 1019,0 hPa 0,0 l/m 2 min 0 min 237 W/m 6,4 km/h (2 Bft) 100,00 %
23.07.2022 19:38 26,0 C 25,6 C 20,6 C 56 % 1019,0 hPa 0,0 l/m 2 min 0 min 221 W/m 3,2 km/h (1 Bft) 100,00 %
23.07.2022 19:40 25,9 C 25,0 C 20,6 C 55 % 1019,0 hPa 0,0 l/m 2 min 0 min 214 W/m 12,9 km/h (3 Bft) 100,00 %
23.07.2022 19:42 25,8 C 25,0 C 20,6 C 56 % 1019,0 hPa 0,0 l/m 2 min 0 min 200 W/m 6,4 km/h (2 Bft) 100,00 %
23.07.2022 19:44 25,8 C 25,0 C 20,6 C 56 % 1019,0 hPa 0,0 l/m 2 min 0 min 150 W/m 3,2 km/h (1 Bft) 100,00 %
23.07.2022 19:46 25,7 C 25,0 C 20,6 C 56 % 1019,0 hPa 0,0 l/m 0 min 0 min 88 W/m 6,4 km/h (2 Bft) 100,00 %
23.07.2022 19:48 25,7 C 25,0 C 20,6 C 56 % 1019,0 hPa 0,0 l/m 0 min 0 min 78 W/m 9,7 km/h (2 Bft) 100,00 %
23.07.2022 19:50 25,7 C 25,0 C 20,6 C 58 % 1019,0 hPa 0,0 l/m 0 min 0 min 74 W/m 3,2 km/h (1 Bft) 100,00 %
23.07.2022 19:52 25,7 C 25,0 C 20,0 C 58 % 1019,0 hPa 0,0 l/m 0 min 0 min 72 W/m 9,7 km/h (2 Bft) 97,87 %
23.07.2022 19:54 25,6 C 25,0 C 20,0 C 57 % 1019,0 hPa 0,0 l/m 0 min 0 min 72 W/m 3,2 km/h (1 Bft) 100,00 %
23.07.2022 19:56 25,6 C 25,0 C 20,0 C 58 % 1019,1 hPa 0,0 l/m 0 min 0 min 71 W/m 9,7 km/h (2 Bft) 97,87 %
23.07.2022 19:58 25,6 C 24,4 C 20,0 C 56 % 1019,1 hPa 0,0 l/m 0 min 0 min 70 W/m 3,2 km/h (1 Bft) 97,87 %
23.07.2022 20:00 25,5 C 25,0 C 20,0 C 57 % 1019,1 hPa 0,0 l/m 0 min 0 min 69 W/m 6,4 km/h (2 Bft) 100,00 %
23.07.2022 20:02 25,5 C 25,0 C 20,0 C 58 % 1019,1 hPa 0,0 l/m 0 min 0 min 68 W/m 6,4 km/h (2 Bft) 100,00 %
23.07.2022 20:04 25,4 C 24,4 C 20,0 C 58 % 1019,1 hPa 0,0 l/m 0 min 0 min 64 W/m 3,2 km/h (1 Bft) 100,00 %
23.07.2022 20:06 25,4 C 24,4 C 20,0 C 57 % 1019,1 hPa 0,0 l/m 0 min 0 min 61 W/m 3,2 km/h (1 Bft) 98,31 %
23.07.2022 20:08 25,3 C 24,4 C 20,0 C 58 % 1019,1 hPa 0,0 l/m 0 min 0 min 57 W/m 0,0 km/h (0 Bft) 100,00 %
23.07.2022 20:10 25,3 C 24,4 C 20,0 C 60 % 1019,2 hPa 0,0 l/m 0 min 0 min 54 W/m 3,2 km/h (1 Bft) 100,00 %
23.07.2022 20:12 25,3 C 24,4 C 19,4 C 59 % 1019,1 hPa 0,0 l/m 0 min 0 min 52 W/m 3,2 km/h (1 Bft) 100,00 %
23.07.2022 20:14 25,2 C 23,9 C 19,4 C 59 % 1019,1 hPa 0,0 l/m 0 min 0 min 49 W/m 6,4 km/h (2 Bft) 100,00 %
23.07.2022 20:16 25,2 C 23,9 C 19,4 C 60 % 1019,2 hPa 0,0 l/m 0 min 0 min 47 W/m 3,2 km/h (1 Bft) 100,00 %
23.07.2022 20:18 25,1 C 23,9 C 19,4 C 58 % 1019,2 hPa 0,0 l/m 0 min 0 min 46 W/m 6,4 km/h (2 Bft) 100,00 %
23.07.2022 20:20 25,1 C 23,9 C 19,4 C 58 % 1019,2 hPa 0,0 l/m 0 min 0 min 46 W/m 3,2 km/h (1 Bft) 100,00 %
23.07.2022 20:22 25,1 C 23,9 C 19,4 C 59 % 1019,2 hPa 0,0 l/m 0 min 0 min 46 W/m 6,4 km/h (2 Bft) 97,87 %
23.07.2022 20:24 25,0 C 23,9 C 19,4 C 60 % 1019,2 hPa 0,0 l/m 0 min 0 min 46 W/m 6,4 km/h (2 Bft) 100,00 %
23.07.2022 20:26 24,9 C 23,9 C 19,4 C 59 % 1019,2 hPa 0,0 l/m 0 min 0 min 44 W/m 0,0 km/h (0 Bft) 100,00 %
23.07.2022 20:28 24,9 C 23,9 C 19,4 C 59 % 1019,2 hPa 0,0 l/m 0 min 0 min 44 W/m 3,2 km/h (1 Bft) 100,00 %
23.07.2022 20:30 24,9 C 23,9 C 19,4 C 59 % 1019,3 hPa 0,0 l/m 0 min 0 min 42 W/m 3,2 km/h (1 Bft) 97,87 %
23.07.2022 20:32 24,8 C 23,3 C 19,4 C 60 % 1019,3 hPa 0,0 l/m 0 min 0 min 40 W/m 9,7 km/h (2 Bft) 97,87 %
23.07.2022 20:34 24,8 C 23,3 C 19,4 C 60 % 1019,2 hPa 0,0 l/m 0 min 0 min 39 W/m 3,2 km/h (1 Bft) 97,87 %
23.07.2022 20:36 24,7 C 23,3 C 19,4 C 60 % 1019,2 hPa 0,0 l/m 0 min 0 min 36 W/m 6,4 km/h (2 Bft) 95,65 %
23.07.2022 20:38 24,7 C 23,3 C 19,4 C 60 % 1019,3 hPa 0,0 l/m 0 min 0 min 33 W/m 3,2 km/h (1 Bft) 97,87 %
23.07.2022 20:40 24,7 C 23,3 C 18,9 C 60 % 1019,3 hPa 0,0 l/m 0 min 0 min 31 W/m 0,0 km/h (0 Bft) 97,87 %
23.07.2022 20:42 24,6 C 23,3 C 18,9 C 60 % 1019,2 hPa 0,0 l/m 0 min 0 min 29 W/m 3,2 km/h (1 Bft) 97,87 %
23.07.2022 20:44 24,6 C 23,3 C 18,9 C 62 % 1019,3 hPa 0,0 l/m 0 min 0 min 27 W/m 3,2 km/h (1 Bft) 95,74 %
23.07.2022 20:46 24,6 C 23,3 C 18,9 C 63 % 1019,3 hPa 0,0 l/m 0 min 0 min 26 W/m 0,0 km/h (0 Bft) 97,87 %
23.07.2022 20:48 24,5 C 22,8 C 18,9 C 62 % 1019,3 hPa 0,0 l/m 0 min 0 min 25 W/m 3,2 km/h (1 Bft) 97,87 %
23.07.2022 20:50 24,4 C 22,8 C 18,3 C 63 % 1019,2 hPa 0,0 l/m 0 min 0 min 23 W/m 0,0 km/h (0 Bft) 97,83 %
23.07.2022 20:52 24,4 C 22,8 C 18,3 C 63 % 1019,3 hPa 0,0 l/m 0 min 0 min 22 W/m 0,0 km/h (0 Bft) 97,87 %
23.07.2022 20:54 24,4 C 22,8 C 18,3 C 63 % 1019,3 hPa 0,0 l/m 0 min 0 min 20 W/m 0,0 km/h (0 Bft) 97,87 %
23.07.2022 20:56 24,4 C 22,8 C 18,3 C 63 % 1019,3 hPa 0,0 l/m 0 min 0 min 19 W/m 0,0 km/h (0 Bft) 97,87 %
23.07.2022 20:58 24,4 C 22,8 C 18,3 C 63 % 1019,3 hPa 0,0 l/m 0 min 0 min 19 W/m 0,0 km/h (0 Bft) 95,74 %
23.07.2022 21:00 24,3 C 22,8 C 18,3 C 62 % 1019,3 hPa 0,0 l/m 0 min 0 min 18 W/m 0,0 km/h (0 Bft) 95,65 %
23.07.2022 21:02 24,3 C 22,8 C 18,3 C 64 % 1019,3 hPa 0,0 l/m 0 min 0 min 17 W/m 0,0 km/h (0 Bft) 95,74 %
23.07.2022 21:04 24,2 C 22,8 C 18,3 C 64 % 1019,3 hPa 0,0 l/m 0 min 0 min 16 W/m 0,0 km/h (0 Bft) 95,74 %
23.07.2022 21:06 24,2 C 22,2 C 17,8 C 64 % 1019,3 hPa 0,0 l/m 0 min 0 min 15 W/m 0,0 km/h (0 Bft) 97,87 %
23.07.2022 21:08 24,2 C 22,2 C 17,8 C 64 % 1019,3 hPa 0,0 l/m 0 min 0 min 14 W/m 0,0 km/h (0 Bft) 97,87 %
23.07.2022 21:10 24,1 C 22,2 C 17,8 C 63 % 1019,3 hPa 0,0 l/m 0 min 0 min 13 W/m 0,0 km/h (0 Bft) 97,87 %
23.07.2022 21:12 24,1 C 22,2 C 17,8 C 63 % 1019,3 hPa 0,0 l/m 0 min 0 min 12 W/m 0,0 km/h (0 Bft) 97,83 %
23.07.2022 21:14 24,1 C 22,2 C 17,8 C 65 % 1019,3 hPa 0,0 l/m 0 min 0 min 12 W/m 0,0 km/h (0 Bft) 97,87 %
23.07.2022 21:16 24,1 C 21,7 C 17,8 C 66 % 1019,3 hPa 0,0 l/m 0 min 0 min 11 W/m 0,0 km/h (0 Bft) 97,87 %
23.07.2022 21:18 24,0 C 21,7 C 17,2 C 66 % 1019,3 hPa 0,0 l/m 0 min 0 min 10 W/m 0,0 km/h (0 Bft) 97,87 %
23.07.2022 21:20 23,9 C 21,7 C 17,2 C 66 % 1019,3 hPa 0,0 l/m 0 min 0 min 9 W/m 0,0 km/h (0 Bft) 97,87 %
23.07.2022 21:22 23,9 C 21,7 C 17,2 C 67 % 1019,3 hPa 0,0 l/m 0 min 0 min 9 W/m 0,0 km/h (0 Bft) 95,74 %
23.07.2022 21:24 23,8 C 21,7 C 17,2 C 67 % 1019,3 hPa 0,0 l/m 0 min 0 min 7 W/m 0,0 km/h (0 Bft) 95,65 %
23.07.2022 21:26 23,8 C 21,7 C 17,2 C 67 % 1019,3 hPa 0,0 l/m 0 min 0 min 6 W/m 0,0 km/h (0 Bft) 97,87 %
23.07.2022 21:28 23,7 C 21,1 C 17,2 C 67 % 1019,3 hPa 0,0 l/m 0 min 0 min 5 W/m 0,0 km/h (0 Bft) 97,87 %
23.07.2022 21:30 23,6 C 21,1 C 17,2 C 67 % 1019,3 hPa 0,0 l/m 0 min 0 min 5 W/m 3,2 km/h (1 Bft) 97,87 %
23.07.2022 21:32 23,6 C 21,1 C 17,2 C 66 % 1019,3 hPa 0,0 l/m 0 min 0 min 0 W/m 0,0 km/h (0 Bft) 95,74 %
23.07.2022 21:34 23,4 C 21,1 C 17,2 C 66 % 1019,4 hPa 0,0 l/m 0 min 0 min 0 W/m 3,2 km/h (1 Bft) 97,87 %
23.07.2022 21:36 23,4 C 21,1 C 17,2 C 67 % 1019,4 hPa 0,0 l/m 0 min 0 min 0 W/m 0,0 km/h (0 Bft) 97,83 %
23.07.2022 21:38 23,3 C 21,1 C 17,2 C 67 % 1019,5 hPa 0,0 l/m 0 min 0 min 0 W/m 0,0 km/h (0 Bft) 97,87 %
23.07.2022 21:40 23,2 C 21,1 C 17,2 C 66 % 1019,5 hPa 0,0 l/m 0 min 0 min 0 W/m 0,0 km/h (0 Bft) 93,62 %
23.07.2022 21:42 23,1 C 21,1 C 16,7 C 66 % 1019,6 hPa 0,0 l/m 0 min 0 min 0 W/m 0,0 km/h (0 Bft) 95,74 %
23.07.2022 21:44 23,1 C 21,1 C 16,7 C 66 % 1019,5 hPa 0,0 l/m 0 min 0 min 0 W/m 0,0 km/h (0 Bft) 97,87 %
23.07.2022 21:46 23,0 C 21,1 C 16,7 C 67 % 1019,6 hPa 0,0 l/m 0 min 0 min 0 W/m 0,0 km/h (0 Bft) 97,87 %
23.07.2022 21:48 22,9 C 21,1 C 16,7 C 69 % 1019,6 hPa 0,0 l/m 0 min 0 min 0 W/m 0,0 km/h (0 Bft) 97,83 %
23.07.2022 21:50 22,9 C 20,6 C 16,7 C 69 % 1019,6 hPa 0,0 l/m 0 min 0 min 0 W/m 0,0 km/h (0 Bft) 95,74 %
23.07.2022 21:52 22,8 C 20,6 C 16,7 C 70 % 1019,6 hPa 0,0 l/m 0 min 0 min 0 W/m 0,0 km/h (0 Bft) 97,87 %
23.07.2022 21:54 22,8 C 20,6 C 16,7 C 70 % 1019,7 hPa 0,0 l/m 0 min 0 min 0 W/m 0,0 km/h (0 Bft) 95,74 %
23.07.2022 21:56 22,7 C 20,6 C 16,7 C 71 % 1019,6 hPa 0,0 l/m 0 min 0 min 0 W/m 0,0 km/h (0 Bft) 97,87 %
23.07.2022 21:58 22,7 C 20,6 C 16,7 C 71 % 1019,7 hPa 0,0 l/m 0 min 0 min 0 W/m 0,0 km/h (0 Bft) 97,83 %
23.07.2022 22:00 22,6 C 20,0 C 16,7 C 71 % 1019,7 hPa 0,0 l/m 0 min 0 min 0 W/m 0,0 km/h (0 Bft) 95,74 %
23.07.2022 22:02 22,4 C 20,0 C 16,1 C 71 % 1019,7 hPa 0,0 l/m 0 min 0 min 0 W/m 0,0 km/h (0 Bft) 97,87 %
23.07.2022 22:04 22,3 C 20,0 C 16,1 C 72 % 1019,7 hPa 0,0 l/m 0 min 0 min 0 W/m 0,0 km/h (0 Bft) 97,87 %
23.07.2022 22:06 22,3 C 20,0 C 16,1 C 72 % 1019,7 hPa 0,0 l/m 0 min 0 min 0 W/m 0,0 km/h (0 Bft) 95,74 %
23.07.2022 22:08 22,2 C 20,0 C 16,1 C 73 % 1019,7 hPa 0,0 l/m 0 min 0 min 0 W/m 0,0 km/h (0 Bft) 97,87 %
23.07.2022 22:10 22,2 C 20,0 C 16,1 C 74 % 1019,7 hPa 0,0 l/m 0 min 0 min 0 W/m 0,0 km/h (0 Bft) 97,87 %
23.07.2022 22:12 22,1 C 20,0 C 16,1 C 74 % 1019,7 hPa 0,0 l/m 0 min 0 min 0 W/m 0,0 km/h (0 Bft) 97,83 %
23.07.2022 22:14 22,0 C 20,0 C 16,1 C 73 % 1019,6 hPa 0,0 l/m 0 min 0 min 0 W/m 0,0 km/h (0 Bft) 97,87 %
23.07.2022 22:16 21,9 C 19,4 C 16,1 C 74 % 1019,6 hPa 0,0 l/m 0 min 0 min 0 W/m 0,0 km/h (0 Bft) 97,87 %
23.07.2022 22:18 21,8 C 19,4 C 16,1 C 74 % 1019,7 hPa 0,0 l/m 0 min 0 min 0 W/m 0,0 km/h (0 Bft) 97,87 %
23.07.2022 22:20 21,7 C 19,4 C 16,1 C 73 % 1019,7 hPa 0,0 l/m 0 min 0 min 0 W/m 0,0 km/h (0 Bft) 97,87 %
23.07.2022 22:22 21,7 C 19,4 C 15,6 C 75 % 1019,7 hPa 0,0 l/m 0 min 0 min 0 W/m 0,0 km/h (0 Bft) 96,08 %
23.07.2022 22:24 21,6 C 19,4 C 15,6 C 75 % 1019,7 hPa 0,0 l/m 0 min 0 min 0 W/m 0,0 km/h (0 Bft) 100,00 %
23.07.2022 22:26 21,6 C 19,4 C 15,6 C 75 % 1019,7 hPa 0,0 l/m 0 min 0 min 0 W/m 0,0 km/h (0 Bft) 97,87 %
23.07.2022 22:28 21,5 C 19,4 C 15,6 C 76 % 1019,7 hPa 0,0 l/m 0 min 0 min 0 W/m 0,0 km/h (0 Bft) 97,87 %
23.07.2022 22:30 21,4 C 19,4 C 15,6 C 76 % 1019,8 hPa 0,0 l/m 0 min 0 min 0 W/m 0,0 km/h (0 Bft) 95,74 %
23.07.2022 22:32 21,3 C 19,4 C 15,6 C 76 % 1019,8 hPa 0,0 l/m 0 min 0 min 0 W/m 0,0 km/h (0 Bft) 97,87 %
23.07.2022 22:34 21,3 C 19,4 C 15,6 C 77 % 1019,7 hPa 0,0 l/m 0 min 0 min 0 W/m 0,0 km/h (0 Bft) 97,83 %
23.07.2022 22:36 21,2 C 19,4 C 15,6 C 77 % 1019,7 hPa 0,0 l/m 0 min 0 min 0 W/m 0,0 km/h (0 Bft) 97,87 %
23.07.2022 22:38 21,1 C 18,9 C 15,6 C 77 % 1019,7 hPa 0,0 l/m 0 min 0 min 0 W/m 0,0 km/h (0 Bft) 97,87 %
23.07.2022 22:40 21,1 C 18,9 C 15,6 C 77 % 1019,7 hPa 0,0 l/m 0 min 0 min 0 W/m 0,0 km/h (0 Bft) 97,87 %
23.07.2022 22:42 21,0 C 18,9 C 15,6 C 77 % 1019,7 hPa 0,0 l/m 0 min 0 min 0 W/m 0,0 km/h (0 Bft) 97,87 %
23.07.2022 22:44 20,9 C 18,9 C 15,6 C 77 % 1019,7 hPa 0,0 l/m 0 min 0 min 0 W/m 0,0 km/h (0 Bft) 97,87 %
23.07.2022 22:46 20,9 C 18,9 C 15,6 C 78 % 1019,8 hPa 0,0 l/m 0 min 0 min 0 W/m 0,0 km/h (0 Bft) 97,83 %
23.07.2022 22:48 20,8 C 18,9 C 15,6 C 78 % 1019,8 hPa 0,0 l/m 0 min 0 min 0 W/m 0,0 km/h (0 Bft) 95,74 %
23.07.2022 22:50 20,8 C 18,9 C 15,6 C 78 % 1019,8 hPa 0,0 l/m 0 min 0 min 0 W/m 0,0 km/h (0 Bft) 97,87 %
23.07.2022 22:52 20,7 C 18,9 C 15,6 C 78 % 1019,8 hPa 0,0 l/m 0 min 0 min 0 W/m 0,0 km/h (0 Bft) 97,87 %
23.07.2022 22:54 20,6 C 18,9 C 15,6 C 78 % 1019,8 hPa 0,0 l/m 0 min 0 min 0 W/m 0,0 km/h (0 Bft) 97,87 %
23.07.2022 22:56 20,6 C 18,9 C 15,6 C 78 % 1019,8 hPa 0,0 l/m 0 min 0 min 0 W/m 0,0 km/h (0 Bft) 100,00 %
23.07.2022 22:58 20,6 C 18,9 C 15,0 C 78 % 1019,8 hPa 0,0 l/m 0 min 0 min 0 W/m 0,0 km/h (0 Bft) 100,00 %
23.07.2022 23:00 20,5 C 18,9 C 15,6 C 78 % 1019,8 hPa 0,0 l/m 0 min 0 min 0 W/m 3,2 km/h (1 Bft) 100,00 %
23.07.2022 23:02 20,4 C 18,9 C 15,6 C 77 % 1019,8 hPa 0,0 l/m 0 min 0 min 0 W/m 0,0 km/h (0 Bft) 100,00 %
23.07.2022 23:04 20,4 C 19,4 C 15,6 C 77 % 1019,8 hPa 0,0 l/m 0 min 0 min 0 W/m 0,0 km/h (0 Bft) 97,87 %
23.07.2022 23:06 20,3 C 18,9 C 15,6 C 77 % 1019,9 hPa 0,0 l/m 0 min 0 min 0 W/m 0,0 km/h (0 Bft) 97,96 %
23.07.2022 23:08 20,3 C 18,9 C 15,6 C 77 % 1019,9 hPa 0,0 l/m 0 min 0 min 0 W/m 0,0 km/h (0 Bft) 100,00 %
23.07.2022 23:10 20,3 C 18,9 C 15,6 C 77 % 1019,9 hPa 0,0 l/m 0 min 0 min 0 W/m 0,0 km/h (0 Bft) 100,00 %
23.07.2022 23:12 20,3 C 18,9 C 15,6 C 77 % 1019,9 hPa 0,0 l/m 0 min 0 min 0 W/m 0,0 km/h (0 Bft) 100,00 %
23.07.2022 23:14 20,3 C 18,9 C 15,6 C 78 % 1019,9 hPa 0,0 l/m 0 min 0 min 0 W/m 0,0 km/h (0 Bft) 100,00 %
23.07.2022 23:16 20,3 C 18,9 C 15,0 C 78 % 1019,9 hPa 0,0 l/m 0 min 0 min 0 W/m 0,0 km/h (0 Bft) 100,00 %
23.07.2022 23:18 20,2 C 18,9 C 15,0 C 79 % 1019,9 hPa 0,0 l/m 0 min 0 min 0 W/m 0,0 km/h (0 Bft) 100,00 %
23.07.2022 23:20 20,2 C 18,9 C 15,0 C 79 % 1019,8 hPa 0,0 l/m 0 min 0 min 0 W/m 0,0 km/h (0 Bft) 100,00 %
23.07.2022 23:22 20,2 C 18,3 C 15,0 C 79 % 1019,8 hPa 0,0 l/m 0 min 0 min 0 W/m 0,0 km/h (0 Bft) 100,00 %
23.07.2022 23:24 20,1 C 18,3 C 15,0 C 79 % 1019,9 hPa 0,0 l/m 0 min 0 min 0 W/m 0,0 km/h (0 Bft) 97,87 %
23.07.2022 23:26 20,1 C 18,3 C 15,0 C 79 % 1019,9 hPa 0,0 l/m 0 min 0 min 0 W/m 0,0 km/h (0 Bft) 100,00 %
23.07.2022 23:28 20,0 C 18,3 C 15,0 C 79 % 1019,9 hPa 0,0 l/m 0 min 0 min 0 W/m 0,0 km/h (0 Bft) 100,00 %
23.07.2022 23:30 19,9 C 18,3 C 15,0 C 79 % 1019,9 hPa 0,0 l/m 0 min 0 min 0 W/m 0,0 km/h (0 Bft) 100,00 %
23.07.2022 23:32 19,9 C 18,3 C 15,0 C 79 % 1019,8 hPa 0,0 l/m 0 min 0 min 0 W/m 0,0 km/h (0 Bft) 100,00 %
23.07.2022 23:34 19,8 C 18,3 C 15,0 C 79 % 1019,9 hPa 0,0 l/m 0 min 0 min 0 W/m 0,0 km/h (0 Bft) 100,00 %
23.07.2022 23:36 19,8 C 18,3 C 15,0 C 80 % 1019,9 hPa 0,0 l/m 0 min 0 min 0 W/m 0,0 km/h (0 Bft) 100,00 %
23.07.2022 23:38 19,8 C 18,3 C 15,0 C 80 % 1019,9 hPa 0,0 l/m 0 min 0 min 0 W/m 0,0 km/h (0 Bft) 100,00 %
23.07.2022 23:40 19,8 C 18,3 C 15,0 C 80 % 1019,9 hPa 0,0 l/m 0 min 0 min 0 W/m 0,0 km/h (0 Bft) 100,00 %
23.07.2022 23:42 19,8 C 18,3 C 15,0 C 80 % 1019,9 hPa 0,0 l/m 0 min 0 min 0 W/m 0,0 km/h (0 Bft) 97,87 %
23.07.2022 23:44 19,7 C 18,3 C 15,0 C 81 % 1019,9 hPa 0,0 l/m 0 min 0 min 0 W/m 0,0 km/h (0 Bft) 100,00 %
23.07.2022 23:46 19,7 C 18,3 C 15,0 C 81 % 1019,9 hPa 0,0 l/m 0 min 0 min 0 W/m 0,0 km/h (0 Bft) 100,00 %
23.07.2022 23:48 19,7 C 18,3 C 14,4 C 81 % 1019,9 hPa 0,0 l/m 0 min 0 min 0 W/m 0,0 km/h (0 Bft) 100,00 %
23.07.2022 23:50 19,7 C 18,3 C 14,4 C 81 % 1019,9 hPa 0,0 l/m 0 min 0 min 0 W/m 0,0 km/h (0 Bft) 97,87 %
23.07.2022 23:52 19,6 C 18,3 C 14,4 C 82 % 1019,8 hPa 0,0 l/m 0 min 0 min 0 W/m 0,0 km/h (0 Bft) 97,87 %
23.07.2022 23:54 19,6 C 18,3 C 14,4 C 82 % 1019,9 hPa 0,0 l/m 0 min 0 min 0 W/m 0,0 km/h (0 Bft) 97,87 %
23.07.2022 23:56 19,6 C 17,8 C 14,4 C 82 % 1019,9 hPa 0,0 l/m 0 min 0 min 0 W/m 0,0 km/h (0 Bft) 95,65 %
23.07.2022 23:58 19,5 C 17,8 C 14,4 C 82 % 1019,9 hPa 0,0 l/m 0 min 0 min 0 W/m 0,0 km/h (0 Bft) 97,87 %
_ Min-Zeit 06:48 05:54 05:58 17:42 03:54 - - - - 00:02 18:26
Minimum _ 14,8 C 13,9 C 10,6 C 52 % 1018,0 hPa - - - - 0,0 km/h (0 Bft) 89,36 %
_ Max-Zeit 17:36 16:48 12:30 08:06 10:54 00:14 12:08 00:08 14:54 14:38 00:50
Maximum _ 27,0 C 32,8 C 26,1 C 98 % 1020,0 hPa 0,2 l/m 4 min 4 min 913 W/m 22,5 km/h
N (4 Bft)
100,00 %
Durchschnitt _ 21,0 C 21,8 C 16,7 C 76 % 1019,2 hPa #2,0 l/m #11:32 h #1:00 h 476 W/m 5,1 km/h (1 Bft) 97,72 %
© 2022 W. Hausmann